EW4266 Weather Reports


time (UTC)temp
C
wind
direction
speed
KPH
gust
KPH
rain 1hr
cm
rain 24hr
cm
rain mn
cm
humidity
%
barometer
mb
20260906234540 13 308 0.0 0.0 0.00 0.00 0.00 84 1016.8
20260906234436 13 308 0.0 0.0 0.00 0.00 0.00 84 1016.8
20260906234322 14 308 0.0 0.0 0.00 0.00 0.00 84 1016.8
20260906234244 14 308 0.0 0.0 0.00 0.00 0.00 84 1016.7
20260906234146 14 308 0.0 0.0 0.00 0.00 0.00 84 1016.7
20260906234031 14 308 0.0 0.0 0.00 0.00 0.00 84 1016.7
20260906233957 14 308 0.0 0.0 0.00 0.00 0.00 84 1016.7
20260906233921 14 308 0.0 0.0 0.00 0.00 0.00 84 1016.7
20260906233803 14 308 0.0 0.0 0.00 0.00 0.00 83 1016.7
20260906233726 14 308 0.0 0.0 0.00 0.00 0.00 83 1016.7
20260906233558 14 308 0.0 0.0 0.00 0.00 0.00 83 1016.7
20260906233452 14 308 0.0 0.0 0.00 0.00 0.00 82 1016.7
20260906233302 14 308 0.0 0.0 0.00 0.00 0.00 82 1016.7
20260906233137 15 308 0.0 0.0 0.00 0.00 0.00 82 1016.7
20260906233040 15 308 0.0 0.0 0.00 0.00 0.00 81 1016.7
20260906232955 15 308 0.0 0.0 0.00 0.00 0.00 81 1016.7
20260906232827 15 308 0.0 0.0 0.00 0.00 0.00 81 1016.7
20260906232732 15 308 0.0 0.0 0.00 0.00 0.00 81 1016.7
20260906232604 15 308 0.0 0.0 0.00 0.00 0.00 81 1016.7
20260906232440 15 308 0.0 0.0 0.00 0.00 0.00 81 1016.7
20260906232324 15 308 0.0 0.0 0.00 0.00 0.00 80 1016.7
20260906232246 15 308 0.0 0.0 0.00 0.00 0.00 80 1016.7
20260906232209 15 308 0.0 0.0 0.00 0.00 0.00 80 1016.7
20260906232115 15 308 0.0 0.0 0.00 0.00 0.00 80 1016.7
20260906232037 15 308 0.0 0.0 0.00 0.00 0.00 80 1016.7
20260906231909 15 308 0.0 0.0 0.00 0.00 0.00 79 1016.6
20260906231826 15 308 0.0 0.0 0.00 0.00 0.00 79 1016.6
20260906231622 15 308 0.0 0.0 0.00 0.00 0.00 79 1016.6
20260906231549 16 308 0.0 0.0 0.00 0.00 0.00 79 1016.6
20260906231511 16 308 0.0 0.0 0.00 0.00 0.00 79 1016.6
20260906231434 16 308 0.0 0.0 0.00 0.00 0.00 78 1016.6
20260906231329 16 308 0.0 0.0 0.00 0.00 0.00 78 1016.6
20260906231140 16 308 0.0 0.0 0.00 0.00 0.00 78 1016.6
20260906231037 16 308 0.0 0.0 0.00 0.00 0.00 78 1016.6
20260906230923 16 308 0.0 0.0 0.00 0.00 0.00 77 1016.6
20260906230829 16 308 0.0 0.0 0.00 0.00 0.00 77 1016.6
20260906230754 16 308 0.0 0.0 0.00 0.00 0.00 77 1016.6
20260906230657 16 308 0.0 0.0 0.00 0.00 0.00 77 1016.6
20260906230619 16 308 0.0 0.0 0.00 0.00 0.00 76 1016.5
20260906230521 16 308 0.0 0.0 0.00 0.00 0.00 76 1016.5
20260906230427 16 308 0.0 0.0 0.00 0.00 0.00 75 1016.6
20260906230328 16 308 0.0 0.0 0.00 0.00 0.00 76 1016.6
20260906230200 16 308 0.0 0.0 0.00 0.00 0.00 74 1016.6
20260906230115 16 308 0.0 0.0 0.00 0.00 0.00 74 1016.6
20260906225925 17 308 0.0 0.0 0.00 0.00 0.00 75 1016.6
20260906225841 17 308 0.0 1.6 0.00 0.00 0.00 75 1016.6
20260906225712 17 308 0.0 1.6 0.00 0.00 0.00 74 1016.6
20260906225637 17 308 0.0 1.6 0.00 0.00 0.00 73 1016.6
20260906225509 17 308 0.0 1.6 0.00 0.00 0.00 74 1016.6
20260906225404 17 308 0.0 1.6 0.00 0.00 0.00 74 1016.6
20260906225124 17 308 0.0 1.6 0.00 0.00 0.00 73 1016.6
20260906225040 17 308 0.0 1.6 0.00 0.00 0.00 72 1016.6
20260906224911 17 308 0.0 1.6 0.00 0.00 0.00 72 1016.7
20260906224834 17 308 0.0 1.6 0.00 0.00 0.00 72 1016.7
20260906224659 17 308 0.0 1.6 0.00 0.00 0.00 70 1016.7
20260906224540 17 308 0.0 4.8 0.00 0.00 0.00 70 1016.7
20260906224456 17 308 0.0 4.8 0.00 0.00 0.00 70 1016.7
20260906224419 17 308 0.0 4.8 0.00 0.00 0.00 70 1016.8
20260906224234 18 308 0.0 4.8 0.00 0.00 0.00 69 1016.8
20260906224149 18 308 0.0 4.8 0.00 0.00 0.00 68 1016.7
20260906223940 18 308 1.6 14.5 0.00 0.00 0.00 68 1016.7
20260906223855 18 308 1.6 14.5 0.00 0.00 0.00 68 1016.7
20260906223726 18 318 0.0 14.5 0.00 0.00 0.00 69 1016.7
20260906223628 18 318 0.0 14.5 0.00 0.00 0.00 69 1016.7
20260906223432 18 318 0.0 14.5 0.00 0.00 0.00 65 1016.7
20260906223354 18 318 1.6 14.5 0.00 0.00 0.00 65 1016.7
20260906223240 18 318 4.8 14.5 0.00 0.00 0.00 64 1016.8
20260906223205 18 327 6.4 14.5 0.00 0.00 0.00 63 1016.7
20260906223015 18 336 3.2 8.0 0.00 0.00 0.00 63 1016.7
20260906222930 18 337 3.2 8.0 0.00 0.00 0.00 65 1016.7
20260906222742 18 310 3.2 12.9 0.00 0.00 0.00 63 1016.7
20260906222638 18 304 4.8 12.9 0.00 0.00 0.00 62 1016.7
20260906222601 18 350 4.8 12.9 0.00 0.00 0.00 62 1016.7
20260906222505 18 330 4.8 12.9 0.00 0.00 0.00 62 1016.6
20260906222429 18 330 4.8 12.9 0.00 0.00 0.00 61 1016.6
20260906222234 18 320 6.4 19.3 0.00 0.00 0.00 62 1016.7
20260906222139 18 303 8.0 19.3 0.00 0.00 0.00 60 1016.7
20260906222044 19 331 6.4 19.3 0.00 0.00 0.00 60 1016.7
20260906221925 19 323 4.8 19.3 0.00 0.00 0.00 61 1016.7
20260906221848 19 329 4.8 19.3 0.00 0.00 0.00 61 1016.7
20260906221751 19 309 6.4 19.3 0.00 0.00 0.00 60 1016.8
20260906221713 19 320 8.0 19.3 0.00 0.00 0.00 60 1016.8
20260906221634 19 336 9.7 19.3 0.00 0.00 0.00 60 1016.7
20260906221518 19 345 8.0 19.3 0.00 0.00 0.00 60 1016.7
20260906221441 19 323 6.4 19.3 0.00 0.00 0.00 59 1016.7
20260906221310 19 330 4.8 16.1 0.00 0.00 0.00 60 1016.7
20260906221223 19 342 6.4 16.1 0.00 0.00 0.00 60 1016.7
20260906221052 20 304 6.4 16.1 0.00 0.00 0.00 59 1016.7
20260906220958 20 332 6.4 16.1 0.00 0.00 0.00 60 1016.7
20260906220841 20 311 9.7 16.1 0.00 0.00 0.00 59 1016.7
20260906220802 20 300 8.0 16.1 0.00 0.00 0.00 57 1016.7
20260906220613 20 296 6.4 16.1 0.00 0.00 0.00 57 1016.7
20260906220526 20 309 8.0 16.1 0.00 0.00 0.00 57 1016.7
20260906220327 20 351 8.0 16.1 0.00 0.00 0.00 57 1016.7
20260906220241 20 332 9.7 16.1 0.00 0.00 0.00 56 1016.7
20260906220143 20 284 11.3 16.1 0.00 0.00 0.00 57 1016.7
20260906220046 20 332 9.7 16.1 0.00 0.00 0.00 57 1016.7
20260906215931 20 16 8.0 14.5 0.00 0.00 0.00 58 1016.7
20260906215837 20 326 8.0 14.5 0.00 0.00 0.00 57 1016.6
20260906215758 20 332 9.7 14.5 0.00 0.00 0.00 57 1016.7
20260906215630 20 350 6.4 16.1 0.00 0.00 0.00 58 1016.7
20260906215523 20 340 6.4 16.1 0.00 0.00 0.00 58 1016.7
20260906215355 20 344 4.8 16.1 0.00 0.00 0.00 58 1016.7
20260906215317 20 350 4.8 16.1 0.00 0.00 0.00 57 1016.7
20260906215238 20 324 6.4 16.1 0.00 0.00 0.00 57 1016.7
20260906215121 20 319 8.0 16.1 0.00 0.00 0.00 57 1016.7
20260906214932 20 345 9.7 16.1 0.00 0.00 0.00 57 1016.7
20260906214829 20 335 8.0 16.1 0.00 0.00 0.00 57 1016.7
20260906214755 20 311 8.0 17.7 0.00 0.00 0.00 57 1016.7
20260906214639 20 313 6.4 17.7 0.00 0.00 0.00 58 1016.7
20260906214535 20 329 4.8 17.7 0.00 0.00 0.00 56 1016.7
20260906214457 21 309 4.8 17.7 0.00 0.00 0.00 57 1016.7
20260906214419 21 302 6.4 17.7 0.00 0.00 0.00 56 1016.7
20260906214335 21 309 8.0 17.7 0.00 0.00 0.00 56 1016.7
20260906214205 21 313 8.0 19.3 0.00 0.00 0.00 57 1016.6
20260906214127 21 308 9.7 19.3 0.00 0.00 0.00 57 1016.6
20260906213930 21 342 8.0 19.3 0.00 0.00 0.00 56 1016.7
20260906213836 21 338 4.8 19.3 0.00 0.00 0.00 57 1016.6
20260906213742 21 329 6.4 19.3 0.00 0.00 0.00 58 1016.7
20260906213643 21 325 9.7 19.3 0.00 0.00 0.00 58 1016.7
20260906213513 21 350 11.3 19.3 0.00 0.00 0.00 56 1016.7
20260906213406 21 350 12.9 19.3 0.00 0.00 0.00 56 1016.6
20260906213237 21 319 11.3 19.3 0.00 0.00 0.00 56 1016.7
20260906213137 21 331 8.0 19.3 0.00 0.00 0.00 56 1016.7
20260906213009 21 306 4.8 16.1 0.00 0.00 0.00 59 1016.7
20260906212924 21 333 4.8 16.1 0.00 0.00 0.00 58 1016.7
20260906212735 21 344 6.4 19.3 0.00 0.00 0.00 58 1016.7
20260906212630 21 340 6.4 19.3 0.00 0.00 0.00 59 1016.7
20260906212556 21 355 6.4 19.3 0.00 0.00 0.00 58 1016.7
20260906212500 21 343 8.0 19.3 0.00 0.00 0.00 57 1016.7
20260906212421 21 336 8.0 19.3 0.00 0.00 0.00 56 1016.7
20260906212252 21 311 9.7 19.3 0.00 0.00 0.00 56 1016.7
20260906212208 21 313 11.3 19.3 0.00 0.00 0.00 58 1016.7
20260906212038 21 348 9.7 19.3 0.00 0.00 0.00 58 1016.7
20260906211940 21 332 8.0 17.7 0.00 0.00 0.00 58 1016.7
20260906211741 21 321 9.7 17.7 0.00 0.00 0.00 58 1016.7
20260906211644 21 294 8.0 17.7 0.00 0.00 0.00 59 1016.7
20260906211547 21 325 9.7 17.7 0.00 0.00 0.00 58 1016.8
20260906211430 21 333 9.7 17.7 0.00 0.00 0.00 60 1016.8
20260906211336 21 333 4.8 17.7 0.00 0.00 0.00 59 1016.8
20260906211236 21 325 4.8 17.7 0.00 0.00 0.00 58 1016.8
20260906211107 21 13 9.7 17.7 0.00 0.00 0.00 57 1016.8
20260906211022 21 343 9.7 17.7 0.00 0.00 0.00 59 1016.8
20260906210833 21 329 6.4 14.5 0.00 0.00 0.00 60 1016.8
20260906210748 21 320 4.8 17.7 0.00 0.00 0.00 61 1016.9
20260906210620 20 331 6.4 17.7 0.00 0.00 0.00 60 1016.9
20260906210542 20 332 8.0 17.7 0.00 0.00 0.00 60 1016.9
20260906210412 20 355 6.4 17.7 0.00 0.00 0.00 61 1016.8
20260906210328 20 332 6.4 17.7 0.00 0.00 0.00 61 1016.8
20260906210142 20 360 8.0 19.3 0.00 0.00 0.00 61 1016.9
20260906210037 20 355 9.7 19.3 0.00 0.00 0.00 60 1016.8
20260906205930 20 334 8.0 19.3 0.00 0.00 0.00 61 1016.8
20260906205852 20 355 8.0 19.3 0.00 0.00 0.00 61 1016.9
20260906205722 20 355 9.7 19.3 0.00 0.00 0.00 60 1016.8
20260906205616 20 333 9.7 19.3 0.00 0.00 0.00 61 1016.9
20260906205428 20 340 11.3 19.3 0.00 0.00 0.00 61 1016.9
20260906205345 20 318 9.7 19.3 0.00 0.00 0.00 60 1016.8
20260906205215 20 355 9.7 20.9 0.00 0.00 0.00 59 1016.8
20260906205138 20 340 9.7 22.5 0.00 0.00 0.00 58 1016.8
20260906204859 21 5 9.7 22.5 0.00 0.00 0.00 57 1016.8
20260906204733 21 360 9.7 22.5 0.00 0.00 0.00 56 1016.8
20260906204653 21 355 9.7 22.5 0.00 0.00 0.00 57 1016.7
20260906204556 21 349 12.9 22.5 0.00 0.00 0.00 56 1016.8
20260906204518 21 342 14.5 22.5 0.00 0.00 0.00 56 1016.8
20260906204323 21 355 14.5 20.9 0.00 0.00 0.00 57 1016.7
20260906204224 21 329 14.5 20.9 0.00 0.00 0.00 57 1016.8
20260906204128 21 5 12.9 24.1 0.00 0.00 0.00 57 1016.7
20260906204051 21 344 12.9 24.1 0.00 0.00 0.00 57 1016.8
20260906204012 21 333 11.3 24.1 0.00 0.00 0.00 56 1016.8
20260906203921 21 351 11.3 24.1 0.00 0.00 0.00 58 1016.8
20260906203843 21 355 12.9 24.1 0.00 0.00 0.00 58 1016.7
20260906203702 21 5 11.3 24.1 0.00 0.00 0.00 59 1016.7
20260906203504 21 331 12.9 24.1 0.00 0.00 0.00 56 1016.7
20260906203426 21 10 16.1 24.1 0.00 0.00 0.00 56 1016.7
20260906203229 21 355 16.1 24.1 0.00 0.00 0.00 55 1016.7
20260906203142 21 18 17.7 24.1 0.00 0.00 0.00 54 1016.7
20260906203025 21 336 14.5 24.1 0.00 0.00 0.00 55 1016.7
20260906202947 21 338 12.9 24.1 0.00 0.00 0.00 56 1016.8
20260906202910 21 315 11.3 22.5 0.00 0.00 0.00 56 1016.7
20260906202820 21 321 12.9 22.5 0.00 0.00 0.00 56 1016.8
20260906202720 21 336 14.5 22.5 0.00 0.00 0.00 55 1016.8
20260906202552 21 342 16.1 22.5 0.00 0.00 0.00 54 1016.8
20260906202507 21 338 14.5 24.1 0.00 0.00 0.00 55 1016.8
20260906202330 21 336 14.5 29.0 0.00 0.00 0.00 55 1016.8
20260906202245 21 328 16.1 29.0 0.00 0.00 0.00 56 1016.8
20260906202116 21 355 14.5 32.2 0.00 0.00 0.00 55 1016.8
20260906202016 21 339 11.3 32.2 0.00 0.00 0.00 55 1016.8
20260906201848 21 339 11.3 32.2 0.00 0.00 0.00 55 1016.8
20260906201724 21 355 17.7 32.2 0.00 0.00 0.00 54 1016.8
20260906201632 21 347 19.3 32.2 0.00 0.00 0.00 56 1016.8
20260906201532 21 355 20.9 32.2 0.00 0.00 0.00 56 1016.8
20260906201336 21 340 17.7 32.2 0.00 0.00 0.00 54 1016.7
20260906201238 21 327 16.1 32.2 0.00 0.00 0.00 55 1016.7
20260906201140 21 331 14.5 32.2 0.00 0.00 0.00 54 1016.7
20260906201101 21 325 14.5 32.2 0.00 0.00 0.00 56 1016.7
20260906201024 21 333 12.9 27.4 0.00 0.00 0.00 55 1016.6
20260906200917 21 344 16.1 27.4 0.00 0.00 0.00 54 1016.6
20260906200839 21 313 16.1 27.4 0.00 0.00 0.00 56 1016.6
20260906200709 21 335 20.9 27.4 0.00 0.00 0.00 55 1016.6
20260906200611 21 342 20.9 27.4 0.00 0.00 0.00 55 1016.6
20260906200457 21 344 16.1 27.4 0.00 0.00 0.00 56 1016.6
20260906200420 21 5 14.5 27.4 0.00 0.00 0.00 57 1016.6
20260906200240 21 312 11.3 25.7 0.00 0.00 0.00 55 1016.6
20260906200022 21 334 6.4 29.0 0.00 0.00 0.00 57 1016.5
20260906195945 21 286 8.0 29.0 0.00 0.00 0.00 57 1016.6
20260906195848 21 314 12.9 29.0 0.00 0.00 0.00 58 1016.6
20260906195729 21 338 17.7 29.0 0.00 0.00 0.00 55 1016.6
20260906195652 21 355 17.7 29.0 0.00 0.00 0.00 55 1016.7
20260906195556 21 355 16.1 29.0 0.00 0.00 0.00 57 1016.7
20260906195519 21 331 16.1 29.0 0.00 0.00 0.00 55 1016.7
20260906195325 21 290 19.3 29.0 0.00 0.00 0.00 53 1016.7
20260906195227 21 278 14.5 29.0 0.00 0.00 0.00 58 1016.6
20260906195133 21 317 6.4 29.0 0.00 0.00 0.00 57 1016.6
20260906195053 21 5 6.4 25.7 0.00 0.00 0.00 57 1016.7
20260906194924 21 348 9.7 25.7 0.00 0.00 0.00 55 1016.6
20260906194817 21 24 8.0 25.7 0.00 0.00 0.00 56 1016.6
20260906194628 21 355 14.5 22.5 0.00 0.00 0.00 57 1016.6
20260906194533 21 24 14.5 27.4 0.00 0.00 0.00 55 1016.6
20260906194431 21 11 11.3 27.4 0.00 0.00 0.00 57 1016.6
20260906194235 21 328 9.7 27.4 0.00 0.00 0.00 59 1016.6
20260906194141 21 11 8.0 27.4 0.00 0.00 0.00 60 1016.6
20260906194025 21 341 8.0 27.4 0.00 0.00 0.00 60 1016.6
20260906193946 21 355 11.3 27.4 0.00 0.00 0.00 60 1016.5
20260906193817 21 344 17.7 27.4 0.00 0.00 0.00 58 1016.5
20260906193731 21 326 17.7 27.4 0.00 0.00 0.00 57 1016.5
20260906193542 20 5 14.5 25.7 0.00 0.00 0.00 59 1016.6
20260906193458 20 337 14.5 25.7 0.00 0.00 0.00 58 1016.6
20260906193317 20 350 16.1 24.1 0.00 0.00 0.00 58 1016.7
20260906193238 20 327 17.7 24.1 0.00 0.00 0.00 57 1016.7
20260906193102 20 304 12.9 24.1 0.00 0.00 0.00 60 1016.7
20260906193027 20 338 9.7 24.1 0.00 0.00 0.00 60 1016.7
20260906192831 20 331 9.7 24.1 0.00 0.00 0.00 57 1016.7
20260906192731 20 329 12.9 24.1 0.00 0.00 0.00 57 1016.7
20260906192634 20 308 14.5 24.1 0.00 0.00 0.00 58 1016.7
20260906192556 21 327 16.1 24.1 0.00 0.00 0.00 56 1016.7
20260906192405 21 275 14.5 24.1 0.00 0.00 0.00 55 1016.7
20260906192327 21 351 12.9 24.1 0.00 0.00 0.00 55 1016.7
20260906192130 21 290 12.9 24.1 0.00 0.00 0.00 57 1016.6
20260906192052 21 331 12.9 24.1 0.00 0.00 0.00 57 1016.6
20260906191956 21 355 12.9 24.1 0.00 0.00 0.00 57 1016.6
20260906191923 21 323 14.5 24.1 0.00 0.00 0.00 57 1016.6
20260906191726 21 317 16.1 24.1 0.00 0.00 0.00 56 1016.7
20260906191629 21 326 16.1 22.5 0.00 0.00 0.00 59 1016.7
20260906191535 21 323 14.5 25.7 0.00 0.00 0.00 57 1016.7
20260906191457 21 336 12.9 25.7 0.00 0.00 0.00 61 1016.6
20260906191333 21 319 11.3 25.7 0.00 0.00 0.00 57 1016.7
20260906191235 21 313 12.9 25.7 0.00 0.00 0.00 58 1016.7
20260906191158 21 318 11.3 25.7 0.00 0.00 0.00 62 1016.7
20260906191103 21 338 8.0 25.7 0.00 0.00 0.00 63 1016.6
20260906191028 21 360 8.0 25.7 0.00 0.00 0.00 63 1016.6
20260906190900 21 342 12.9 25.7 0.00 0.00 0.00 62 1016.6
20260906190814 21 337 14.5 25.7 0.00 0.00 0.00 61 1016.7
20260906190625 21 348 14.5 25.7 0.00 0.00 0.00 61 1016.7
20260906190540 21 323 14.5 24.1 0.00 0.00 0.00 62 1016.7
20260906190408 20 306 16.1 24.1 0.00 0.00 0.00 62 1016.8
20260906190308 20 346 14.5 24.1 0.00 0.00 0.00 63 1016.8
20260906190139 20 315 16.1 24.1 0.00 0.00 0.00 66 1016.7
20260906190032 20 355 17.7 24.1 0.00 0.00 0.00 65 1016.7
20260906185903 20 360 12.9 24.1 0.00 0.00 0.00 65 1016.8
20260906185824 20 348 11.3 24.1 0.00 0.00 0.00 66 1016.8
20260906185632 20 326 9.7 24.1 0.00 0.00 0.00 66 1016.8
20260906185553 20 312 9.7 24.1 0.00 0.00 0.00 65 1016.8
20260906185437 20 13 12.9 24.1 0.00 0.00 0.00 64 1016.8
20260906185358 20 5 14.5 24.1 0.00 0.00 0.00 63 1016.8
20260906185140 20 308 12.9 20.9 0.00 0.00 0.00 65 1016.8
20260906185102 20 355 11.3 20.9 0.00 0.00 0.00 65 1016.8
20260906185007 20 337 6.4 20.9 0.00 0.00 0.00 65 1016.9
20260906184929 20 316 6.4 20.9 0.00 0.00 0.00 64 1016.9
20260906184748 20 313 12.9 20.9 0.00 0.00 0.00 65 1016.8
20260906184641 20 252 11.3 20.9 0.00 0.00 0.00 65 1016.8
20260906184511 20 355 11.3 20.9 0.00 0.00 0.00 63 1016.8
20260906184436 20 333 11.3 20.9 0.00 0.00 0.00 63 1016.8
20260906184308 20 275 11.3 20.9 0.00 0.00 0.00 66 1016.8
20260906184144 20 329 11.3 20.9 0.00 0.00 0.00 65 1016.8
20260906184105 20 314 11.3 20.9 0.00 0.00 0.00 67 1016.8
20260906184008 20 294 11.3 20.9 0.00 0.00 0.00 68 1016.9
20260906183819 20 360 8.0 19.3 0.00 0.00 0.00 69 1016.9
20260906183740 20 338 9.7 19.3 0.00 0.00 0.00 67 1016.9
20260906183542 20 355 11.3 19.3 0.00 0.00 0.00 66 1016.9
20260906183505 20 332 12.9 19.3 0.00 0.00 0.00 65 1017.0
20260906183409 20 319 14.5 25.7 0.00 0.00 0.00 65 1017.0
20260906183329 20 338 12.9 25.7 0.00 0.00 0.00 65 1017.0
20260906183204 20 324 6.4 25.7 0.00 0.00 0.00 68 1017.0
20260906183126 20 11 4.8 25.7 0.00 0.00 0.00 68 1017.0
20260906182948 20 314 11.3 25.7 0.00 0.00 0.00 63 1017.0
20260906182758 20 303 9.7 25.7 0.00 0.00 0.00 66 1017.0
20260906182720 20 321 12.9 25.7 0.00 0.00 0.00 65 1017.0
20260906182524 20 327 12.9 27.4 0.00 0.00 0.00 65 1017.0
20260906182447 20 334 11.3 29.0 0.00 0.00 0.00 64 1017.1
20260906182332 21 309 11.3 29.0 0.00 0.00 0.00 63 1017.1
20260906182226 21 290 11.3 29.0 0.00 0.00 0.00 66 1017.1
20260906182148 21 313 11.3 29.0 0.00 0.00 0.00 64 1017.1
20260906182115 21 336 11.3 29.0 0.00 0.00 0.00 64 1017.0
20260906182029 21 328 12.9 29.0 0.00 0.00 0.00 64 1017.0
20260906181900 21 317 16.1 29.0 0.00 0.00 0.00 65 1017.1
20260906181739 21 332 17.7 29.0 0.00 0.00 0.00 67 1017.1
20260906181644 21 360 12.9 22.5 0.00 0.00 0.00 69 1017.0
20260906181523 20 16 12.9 22.5 0.00 0.00 0.00 68 1017.1
20260906181428 20 46 12.9 22.5 0.00 0.00 0.00 67 1017.1
20260906181351 20 360 12.9 22.5 0.00 0.00 0.00 68 1017.1
20260906181252 20 319 12.9 22.5 0.00 0.00 0.00 67 1017.1
20260906181157 20 336 9.7 22.5 0.00 0.00 0.00 65 1017.1
20260906181119 20 315 9.7 22.5 0.00 0.00 0.00 68 1017.1
20260906180935 20 310 12.9 22.5 0.00 0.00 0.00 65 1017.1
20260906180828 20 300 14.5 22.5 0.00 0.00 0.00 66 1017.1
20260906180750 20 324 12.9 22.5 0.00 0.00 0.00 65 1017.1
20260906180655 20 335 12.9 22.5 0.00 0.00 0.00 66 1017.2
20260906180616 20 355 11.3 22.5 0.00 0.00 0.00 66 1017.2
20260906180427 20 329 6.4 22.5 0.00 0.00 0.00 65 1017.1
20260906180322 20 274 8.0 22.5 0.00 0.00 0.00 65 1017.1
20260906180131 20 325 14.5 22.5 0.00 0.00 0.00 66 1017.2
20260906180025 20 314 11.3 22.5 0.00 0.00 0.00 67 1017.2
20260906175923 20 344 6.4 22.5 0.00 0.00 0.00 64 1017.1
20260906175844 20 327 6.4 22.5 0.00 0.00 0.00 65 1017.1
20260906175715 20 314 11.3 22.5 0.00 0.00 0.00 63 1017.2
20260906175630 20 246 12.9 22.5 0.00 0.00 0.00 64 1017.2
20260906175459 20 339 11.3 22.5 0.00 0.00 0.00 67 1017.1
20260906175422 20 347 9.7 22.5 0.00 0.00 0.00 68 1017.1
20260906175336 20 350 9.7 22.5 0.00 0.00 0.00 67 1017.2
20260906175207 20 315 11.3 22.5 0.00 0.00 0.00 66 1017.2
20260906175129 20 5 8.0 22.5 0.00 0.00 0.00 69 1017.2
20260906174935 20 38 9.7 22.5 0.00 0.00 0.00 66 1017.2
20260906174841 20 338 12.9 22.5 0.00 0.00 0.00 68 1017.3
20260906174745 20 292 8.0 19.3 0.00 0.00 0.00 65 1017.3
20260906174648 20 226 8.0 19.3 0.00 0.00 0.00 66 1017.3
20260906174610 20 267 9.7 19.3 0.00 0.00 0.00 66 1017.3
20260906174515 20 325 11.3 19.3 0.00 0.00 0.00 68 1017.3
20260906174436 20 317 9.7 19.3 0.00 0.00 0.00 69 1017.3
20260906174255 20 330 6.4 22.5 0.00 0.00 0.00 67 1017.3
20260906174105 20 328 8.0 22.5 0.00 0.00 0.00 66 1017.3
20260906174020 20 336 8.0 22.5 0.00 0.00 0.00 66 1017.3
20260906173850 20 337 11.3 22.5 0.00 0.00 0.00 66 1017.3
20260906173813 20 291 12.9 22.5 0.00 0.00 0.00 65 1017.3
20260906173525 20 347 11.3 22.5 0.00 0.00 0.00 68 1017.3
20260906173452 20 346 9.7 22.5 0.00 0.00 0.00 66 1017.3
20260906173355 20 311 11.3 22.5 0.00 0.00 0.00 66 1017.3
20260906173236 20 327 14.5 22.5 0.00 0.00 0.00 68 1017.3
20260906173200 20 336 14.5 22.5 0.00 0.00 0.00 69 1017.3
20260906173024 20 325 11.3 20.9 0.00 0.00 0.00 68 1017.4
20260906172936 20 360 11.3 20.9 0.00 0.00 0.00 68 1017.4
20260906172839 20 360 8.0 20.9 0.00 0.00 0.00 70 1017.4
20260906172741 20 340 9.7 20.9 0.00 0.00 0.00 66 1017.4
20260906172701 20 340 12.9 20.9 0.00 0.00 0.00 66 1017.4
20260906172607 20 5 12.9 20.9 0.00 0.00 0.00 64 1017.4
20260906172512 20 333 9.7 20.9 0.00 0.00 0.00 66 1017.4
20260906172432 20 349 11.3 20.9 0.00 0.00 0.00 66 1017.4
20260906172306 20 332 14.5 20.9 0.00 0.00 0.00 69 1017.4
20260906172218 20 355 12.9 20.9 0.00 0.00 0.00 68 1017.4
20260906172050 20 341 8.0 22.5 0.00 0.00 0.00 72 1017.5
20260906172012 20 346 6.4 22.5 0.00 0.00 0.00 68 1017.5
20260906171935 20 275 8.0 22.5 0.00 0.00 0.00 69 1017.5
20260906171820 20 325 11.3 22.5 0.00 0.00 0.00 68 1017.5
20260906171719 20 355 12.9 22.5 0.00 0.00 0.00 68 1017.5
20260906171550 20 321 9.7 22.5 0.00 0.00 0.00 67 1017.5
20260906171504 20 325 8.0 22.5 0.00 0.00 0.00 67 1017.5
20260906171335 20 342 14.5 22.5 0.00 0.00 0.00 66 1017.6
20260906171240 20 355 14.5 22.5 0.00 0.00 0.00 70 1017.6
20260906171112 20 310 9.7 22.5 0.00 0.00 0.00 71 1017.5
20260906171025 20 331 8.0 20.9 0.00 0.00 0.00 72 1017.5
20260906170857 19 306 9.7 20.9 0.00 0.00 0.00 70 1017.5
20260906170818 19 360 12.9 20.9 0.00 0.00 0.00 70 1017.5
20260906170641 19 333 12.9 20.9 0.00 0.00 0.00 71 1017.5
20260906170543 19 334 11.3 20.9 0.00 0.00 0.00 70 1017.5
20260906170427 19 335 11.3 20.9 0.00 0.00 0.00 69 1017.5
20260906170349 19 317 11.3 20.9 0.00 0.00 0.00 67 1017.5
20260906170231 19 317 11.3 19.3 0.00 0.00 0.00 67 1017.5
20260906170153 20 327 9.7 19.3 0.00 0.00 0.00 69 1017.5
20260906170059 20 320 8.0 19.3 0.00 0.00 0.00 69 1017.5
20260906165921 20 287 9.7 19.3 0.00 0.00 0.00 70 1017.6
20260906165846 20 355 11.3 19.3 0.00 0.00 0.00 69 1017.6
20260906165715 20 355 8.0 19.3 0.00 0.00 0.00 69 1017.5
20260906165637 20 344 6.4 17.7 0.00 0.00 0.00 69 1017.5
20260906165501 20 333 11.3 17.7 0.00 0.00 0.00 69 1017.6
20260906165423 20 355 11.3 17.7 0.00 0.00 0.00 72 1017.6
20260906165252 20 320 11.3 16.1 0.00 0.00 0.00 70 1017.6
20260906165201 20 311 9.7 16.1 0.00 0.00 0.00 70 1017.6
20260906165023 20 342 8.0 16.1 0.00 0.00 0.00 71 1017.6
20260906164949 20 300 6.4 17.7 0.00 0.00 0.00 71 1017.7
20260906164843 20 303 4.8 17.7 0.00 0.00 0.00 71 1017.7
20260906164806 20 317 3.2 17.7 0.00 0.00 0.00 71 1017.7
20260906164719 20 240 4.8 17.7 0.00 0.00 0.00 71 1017.7
20260906164530 20 297 9.7 17.7 0.00 0.00 0.00 70 1017.7
20260906164446 20 331 8.0 17.7 0.00 0.00 0.00 74 1017.7
20260906164315 19 5 11.3 20.9 0.00 0.00 0.00 73 1017.8
20260906164216 19 325 12.9 20.9 0.00 0.00 0.00 73 1017.7
20260906164059 19 342 11.3 20.9 0.00 0.00 0.00 77 1017.7
20260906164020 19 325 9.7 20.9 0.00 0.00 0.00 77 1017.7
20260906163836 18 344 6.4 20.9 0.00 0.00 0.00 75 1017.8
20260906163730 18 19 8.0 20.9 0.00 0.00 0.00 73 1017.8
20260906163654 18 17 8.0 20.9 0.00 0.00 0.00 73 1017.8
20260906163559 18 14 9.7 20.9 0.00 0.00 0.00 71 1017.8
20260906163521 18 11 9.7 20.9 0.00 0.00 0.00 71 1017.8
20260906163233 18 336 12.9 19.3 0.00 0.00 0.00 72 1017.9
20260906163136 18 333 12.9 19.3 0.00 0.00 0.00 72 1017.9
20260906163020 18 267 11.3 17.7 0.00 0.00 0.00 73 1017.9
20260906162953 18 320 11.3 17.7 0.00 0.00 0.00 73 1017.9
20260906162923 18 288 9.7 17.7 0.00 0.00 0.00 75 1017.9
20260906162802 18 333 9.7 16.1 0.00 0.00 0.00 77 1017.9
20260906162732 18 5 9.7 16.1 0.00 0.00 0.00 77 1017.9
20260906162537 18 311 4.8 16.1 0.00 0.00 0.00 76 1018.0
20260906162458 18 336 4.8 16.1 0.00 0.00 0.00 76 1018.0
20260906162323 18 333 4.8 16.1 0.00 0.00 0.00 76 1018.0
20260906162237 18 334 4.8 16.1 0.00 0.00 0.00 78 1018.1
20260906162107 18 338 8.0 16.1 0.00 0.00 0.00 75 1018.1
20260906162030 18 297 9.7 16.1 0.00 0.00 0.00 76 1018.1
20260906161837 18 332 11.3 16.1 0.00 0.00 0.00 77 1018.1
20260906161740 18 18 9.7 16.1 0.00 0.00 0.00 78 1018.1
20260906161624 18 355 9.7 16.1 0.00 0.00 0.00 77 1018.1
20260906161518 18 342 11.3 16.1 0.00 0.00 0.00 78 1018.1
20260906161431 18 302 9.7 16.1 0.00 0.00 0.00 78 1018.2
20260906161335 17 323 8.0 16.1 0.00 0.00 0.00 79 1018.1
20260906161256 17 316 6.4 12.9 0.00 0.00 0.00 79 1018.2
20260906161126 17 322 4.8 19.3 0.00 0.00 0.00 76 1018.1
20260906161040 17 315 4.8 19.3 0.00 0.00 0.00 78 1018.2
20260906160909 17 315 8.0 19.3 0.00 0.00 0.00 80 1018.2
20260906160832 17 348 9.7 19.3 0.00 0.00 0.00 79 1018.3
20260906160716 17 323 9.7 19.3 0.00 0.00 0.00 79 1018.4
20260906160637 17 330 9.7 19.3 0.00 0.00 0.00 77 1018.4
20260906160509 17 348 11.3 19.3 0.00 0.00 0.00 78 1018.4
20260906160322 17 330 11.3 19.3 0.00 0.00 0.00 81 1018.4
20260906160224 17 360 6.4 17.7 0.00 0.00 0.00 79 1018.4
20260906160129 17 45 6.4 17.7 0.00 0.00 0.00 80 1018.4
20260906160051 17 12 8.0 17.7 0.00 0.00 0.00 81 1018.4
20260906155952 17 351 9.7 17.7 0.00 0.00 0.00 81 1018.4
20260906155854 17 335 8.0 17.7 0.00 0.00 0.00 81 1018.5
20260906155815 17 342 6.4 17.7 0.00 0.00 0.00 81 1018.5
20260906155721 17 5 3.2 12.9 0.00 0.00 0.00 82 1018.5
20260906155641 17 5 3.2 12.9 0.00 0.00 0.00 80 1018.5
20260906155513 17 63 4.8 12.9 0.00 0.00 0.00 81 1018.5
20260906155406 17 46 4.8 12.9 0.00 0.00 0.00 81 1018.5
20260906155236 16 351 0.0 12.9 0.00 0.00 0.00 83 1018.5
20260906155137 16 20 0.0 12.9 0.00 0.00 0.00 83 1018.5
20260906154923 16 355 1.6 12.9 0.00 0.00 0.00 82 1018.5
20260906154847 16 327 3.2 12.9 0.00 0.00 0.00 83 1018.4
20260906154729 16 355 6.4 12.9 0.00 0.00 0.00 82 1018.5
20260906154643 16 346 8.0 12.9 0.00 0.00 0.00 82 1018.5
20260906154453 16 327 8.0 14.5 0.00 0.00 0.00 83 1018.5
20260906154415 16 325 6.4 14.5 0.00 0.00 0.00 83 1018.5
20260906154246 16 342 4.8 14.5 0.00 0.00 0.00 83 1018.5
20260906154141 16 336 4.8 14.5 0.00 0.00 0.00 84 1018.4
20260906154026 16 342 6.4 14.5 0.00 0.00 0.00 83 1018.5
20260906153950 16 350 6.4 14.5 0.00 0.00 0.00 83 1018.5
20260906153917 16 333 8.0 14.5 0.00 0.00 0.00 83 1018.5
20260906153819 16 348 9.7 14.5 0.00 0.00 0.00 83 1018.5
20260906153741 16 328 8.0 14.5 0.00 0.00 0.00 83 1018.5
20260906153524 16 340 6.4 14.5 0.00 0.00 0.00 83 1018.5
20260906153426 16 324 6.4 14.5 0.00 0.00 0.00 83 1018.5
20260906153331 16 329 6.4 14.5 0.00 0.00 0.00 83 1018.5
20260906153253 16 342 8.0 16.1 0.00 0.00 0.00 83 1018.5
20260906153216 16 340 8.0 16.1 0.00 0.00 0.00 83 1018.5
20260906153056 16 348 8.0 16.1 0.00 0.00 0.00 83 1018.5
20260906153012 16 341 8.0 16.1 0.00 0.00 0.00 82 1018.6
20260906152734 16 5 9.7 16.1 0.00 0.00 0.00 83 1018.6
20260906152650 16 324 8.0 16.1 0.00 0.00 0.00 83 1018.6
20260906152551 16 5 9.7 16.1 0.00 0.00 0.00 82 1018.6
20260906152512 16 355 8.0 16.1 0.00 0.00 0.00 82 1018.6
20260906152427 16 328 8.0 16.1 0.00 0.00 0.00 83 1018.6
20260906152246 16 360 4.8 16.1 0.00 0.00 0.00 83 1018.6
20260906152148 16 360 8.0 16.1 0.00 0.00 0.00 83 1018.6
20260906152031 16 5 8.0 16.1 0.00 0.00 0.00 83 1018.6
20260906151953 16 360 8.0 16.1 0.00 0.00 0.00 82 1018.6
20260906151814 16 5 11.3 16.1 0.00 0.00 0.00 83 1018.6
20260906151735 16 347 12.9 16.1 0.00 0.00 0.00 83 1018.6
20260906151606 16 335 11.3 16.1 0.00 0.00 0.00 83 1018.6
20260906151533 16 343 11.3 16.1 0.00 0.00 0.00 83 1018.6
20260906151336 16 348 8.0 16.1 0.00 0.00 0.00 83 1018.6
20260906151258 16 360 9.7 16.1 0.00 0.00 0.00 83 1018.6
20260906151202 16 344 9.7 16.1 0.00 0.00 0.00 83 1018.6
20260906151126 16 5 11.3 16.1 0.00 0.00 0.00 83 1018.6
20260906150928 15 360 9.7 14.5 0.00 0.00 0.00 84 1018.5
20260906150830 15 337 8.0 14.5 0.00 0.00 0.00 84 1018.5
20260906150733 15 348 8.0 14.5 0.00 0.00 0.00 83 1018.5
20260906150634 15 337 8.0 14.5 0.00 0.00 0.00 84 1018.6
20260906150601 15 346 8.0 14.5 0.00 0.00 0.00 84 1018.6
20260906150503 15 338 8.0 12.9 0.00 0.00 0.00 84 1018.6
20260906150344 15 351 6.4 12.9 0.00 0.00 0.00 85 1018.6
20260906150228 15 62 4.8 16.1 0.00 0.00 0.00 85 1018.6
20260906150149 15 344 4.8 16.1 0.00 0.00 0.00 85 1018.6
20260906145930 15 344 4.8 16.1 0.00 0.00 0.00 84 1018.6
20260906145853 15 13 4.8 16.1 0.00 0.00 0.00 85 1018.6
20260906145756 15 5 8.0 16.1 0.00 0.00 0.00 85 1018.7
20260906145657 15 355 8.0 16.1 0.00 0.00 0.00 85 1018.6
20260906145619 15 336 8.0 16.1 0.00 0.00 0.00 85 1018.6
20260906145455 15 326 8.0 16.1 0.00 0.00 0.00 84 1018.7
20260906145428 15 355 6.4 16.1 0.00 0.00 0.00 84 1018.7
20260906145227 15 17 8.0 16.1 0.00 0.00 0.00 85 1018.6
20260906145141 15 350 9.7 16.1 0.00 0.00 0.00 85 1018.6
20260906145026 15 350 9.7 16.1 0.00 0.00 0.00 85 1018.6
20260906144948 15 342 9.7 16.1 0.00 0.00 0.00 85 1018.7
20260906144912 15 327 11.3 16.1 0.00 0.00 0.00 85 1018.6
20260906144756 15 346 9.7 17.7 0.00 0.00 0.00 85 1018.6
20260906144718 15 5 9.7 17.7 0.00 0.00 0.00 85 1018.6
20260906144525 15 355 9.7 17.7 0.00 0.00 0.00 86 1018.6
20260906144428 15 348 8.0 17.7 0.00 0.00 0.00 85 1018.6
20260906144332 15 327 6.4 17.7 0.00 0.00 0.00 86 1018.6
20260906144253 15 341 6.4 17.7 0.00 0.00 0.00 86 1018.6
20260906144214 15 340 6.4 17.7 0.00 0.00 0.00 86 1018.6
20260906144119 15 13 6.4 17.7 0.00 0.00 0.00 87 1018.6
20260906144040 15 348 8.0 17.7 0.00 0.00 0.00 86 1018.6
20260906143910 15 351 11.3 17.7 0.00 0.00 0.00 85 1018.5
20260906143824 15 329 8.0 16.1 0.00 0.00 0.00 86 1018.5
20260906143655 15 9 4.8 9.7 0.00 0.00 0.00 86 1018.4
20260906143616 15 13 6.4 9.7 0.00 0.00 0.00 86 1018.4
20260906143424 15 355 3.2 9.7 0.00 0.00 0.00 87 1018.5
20260906143325 15 15 0.0 6.4 0.00 0.00 0.00 87 1018.4
20260906143229 15 332 0.0 0.0 0.00 0.00 0.00 87 1018.4
20260906143130 15 336 0.0 0.0 0.00 0.00 0.00 87 1018.4
20260906143001 15 329 0.0 0.0 0.00 0.00 0.00 87 1018.4
20260906142917 15 360 0.0 0.0 0.00 0.00 0.00 87 1018.4
20260906142747 15 339 0.0 0.0 0.00 0.00 0.00 86 1018.4
20260906142648 15 335 0.0 0.0 0.00 0.00 0.00 86 1018.4
20260906142611 15 319 0.0 0.0 0.00 0.00 0.00 85 1018.4
20260906142435 15 355 0.0 0.0 0.00 0.00 0.00 86 1018.4
20260906142334 15 334 0.0 0.0 0.00 0.00 0.00 87 1018.4
20260906142256 15 330 0.0 0.0 0.00 0.00 0.00 87 1018.4
20260906142219 15 350 0.0 0.0 0.00 0.00 0.00 87 1018.4
20260906142133 15 317 0.0 0.0 0.00 0.00 0.00 86 1018.4
20260906142004 15 348 0.0 0.0 0.00 0.00 0.00 87 1018.4
20260906141844 15 342 0.0 0.0 0.00 0.00 0.00 87 1018.4
20260906141728 15 341 0.0 0.0 0.00 0.00 0.00 86 1018.4
20260906141649 15 355 0.0 0.0 0.00 0.00 0.00 86 1018.4
20260906141605 15 5 0.0 0.0 0.00 0.00 0.00 86 1018.4
20260906141527 15 13 0.0 0.0 0.00 0.00 0.00 86 1018.4
20260906141338 15 5 0.0 0.0 0.00 0.00 0.00 86 1018.4
20260906141257 15 351 0.0 0.0 0.00 0.00 0.00 87 1018.4
20260906141106 15 360 0.0 0.0 0.00 0.00 0.00 86 1018.4
20260906141027 15 339 0.0 0.0 0.00 0.00 0.00 87 1018.4
20260906140831 15 360 0.0 0.0 0.00 0.00 0.00 87 1018.3
20260906140752 15 355 0.0 0.0 0.00 0.00 0.00 87 1018.4
20260906140656 15 18 0.0 0.0 0.00 0.00 0.00 87 1018.4
20260906140618 15 333 0.0 0.0 0.00 0.00 0.00 87 1018.3
20260906140449 15 349 0.0 0.0 0.00 0.00 0.00 88 1018.4
20260906140403 15 350 0.0 0.0 0.00 0.00 0.00 89 1018.4
20260906140211 15 331 0.0 0.0 0.00 0.00 0.00 88 1018.4
20260906140132 15 334 0.0 0.0 0.00 0.00 0.00 88 1018.4
20260906140005 15 319 0.0 0.0 0.00 0.00 0.00 88 1018.3
20260906135923 15 339 0.0 0.0 0.00 0.00 0.00 88 1018.3
20260906135733 14 319 0.0 0.0 0.00 0.00 0.00 90 1018.3
20260906135629 14 337 0.0 0.0 0.00 0.00 0.00 90 1018.4
20260906135524 14 355 0.0 0.0 0.00 0.00 0.00 90 1018.4
20260906135445 14 348 0.0 0.0 0.00 0.00 0.00 89 1018.3
20260906135418 14 320 0.0 0.0 0.00 0.00 0.00 90 1018.4
20260906135242 14 315 0.0 0.0 0.00 0.00 0.00 88 1018.4
20260906135143 14 319 0.0 0.0 0.00 0.00 0.00 89 1018.3
20260906135032 14 346 0.0 0.0 0.00 0.00 0.00 89 1018.4
20260906134955 14 320 0.0 0.0 0.00 0.00 0.00 89 1018.3
20260906134917 14 313 0.0 0.0 0.00 0.00 0.00 90 1018.4
20260906134821 14 323 0.0 0.0 0.00 0.00 0.00 89 1018.4
20260906134742 14 323 0.0 0.0 0.00 0.00 0.00 89 1018.3
20260906134611 14 346 0.0 0.0 0.00 0.00 0.00 89 1018.4
20260906134525 13 300 0.0 0.0 0.00 0.00 0.00 89 1018.4
20260906134336 13 344 0.0 0.0 0.00 0.00 0.00 90 1018.4
20260906134249 13 331 0.0 0.0 0.00 0.00 0.00 89 1018.4
20260906134119 13 325 0.0 0.0 0.00 0.00 0.00 90 1018.4
20260906134041 13 350 0.0 0.0 0.00 0.00 0.00 90 1018.4
20260906133934 13 326 0.0 0.0 0.00 0.00 0.00 90 1018.3
20260906133808 13 300 0.0 0.0 0.00 0.00 0.00 89 1018.3
20260906133729 13 330 0.0 0.0 0.00 0.00 0.00 89 1018.3
20260906133553 13 310 0.0 0.0 0.00 0.00 0.00 89 1018.3
20260906133515 13 317 0.0 0.0 0.00 0.00 0.00 89 1018.2
20260906133325 13 332 0.0 0.0 0.00 0.00 0.00 89 1018.2
20260906133239 13 321 0.0 0.0 0.00 0.00 0.00 89 1018.2
20260906133110 13 330 0.0 0.0 0.00 0.00 0.00 89 1018.2
20260906133031 13 342 0.0 0.0 0.00 0.00 0.00 89 1018.2
20260906132835 13 324 0.0 0.0 0.00 0.00 0.00 90 1018.2
20260906132758 13 337 0.0 0.0 0.00 0.00 0.00 89 1018.2
20260906132700 13 328 0.0 0.0 0.00 0.00 0.00 89 1018.3
20260906132625 13 338 0.0 0.0 0.00 0.00 0.00 89 1018.3
20260906132431 13 323 0.0 0.0 0.00 0.00 0.00 89 1018.2
20260906132331 13 317 0.0 0.0 0.00 0.00 0.00 89 1018.2
20260906132236 13 332 0.0 0.0 0.00 0.00 0.00 89 1018.2
20260906132157 13 291 0.0 0.0 0.00 0.00 0.00 89 1018.2
20260906132008 13 314 0.0 0.0 0.00 0.00 0.00 89 1018.2
20260906131923 13 319 0.0 0.0 0.00 0.00 0.00 89 1018.2
20260906131754 13 329 0.0 0.0 0.00 0.00 0.00 89 1018.2
20260906131715 13 323 0.0 0.0 0.00 0.00 0.00 89 1018.2
20260906131546 13 317 0.0 0.0 0.00 0.00 0.00 89 1018.2
20260906131446 13 321 0.0 0.0 0.00 0.00 0.00 89 1018.2
20260906131407 13 323 0.0 0.0 0.00 0.00 0.00 89 1018.1
20260906131312 13 332 0.0 0.0 0.00 0.00 0.00 89 1018.1
20260906131233 13 316 0.0 0.0 0.00 0.00 0.00 89 1018.1
20260906131102 13 337 0.0 0.0 0.00 0.00 0.00 88 1018.1
20260906131018 13 304 0.0 0.0 0.00 0.00 0.00 89 1018.1
20260906130736 14 302 0.0 0.0 0.00 0.00 0.00 88 1018.1
20260906130650 14 344 0.0 0.0 0.00 0.00 0.00 88 1018.0
20260906130520 14 335 0.0 0.0 0.00 0.00 0.00 89 1018.0
20260906130441 14 355 0.0 0.0 0.00 0.00 0.00 88 1018.0
20260906130305 14 318 0.0 0.0 0.00 0.00 0.00 88 1018.1
20260906130227 14 316 0.0 0.0 0.00 0.00 0.00 88 1018.1
20260906130041 14 333 0.0 0.0 0.00 0.00 0.00 88 1018.0
20260906125936 14 323 0.0 0.0 0.00 0.00 0.00 88 1018.0
20260906125859 14 293 0.0 0.0 0.00 0.00 0.00 88 1018.0
20260906125723 14 336 0.0 0.0 0.00 0.00 0.00 88 1018.0
20260906125638 14 350 0.0 0.0 0.00 0.00 0.00 89 1018.0
20260906125541 14 329 0.0 0.0 0.00 0.00 0.00 89 1018.0
20260906125454 14 355 0.0 0.0 0.00 0.00 0.00 89 1018.0
20260906125415 14 336 0.0 0.0 0.00 0.00 0.00 89 1018.0
20260906125223 14 337 0.0 0.0 0.00 0.00 0.00 90 1018.0
20260906125127 14 336 0.0 0.0 0.00 0.00 0.00 90 1017.9
20260906125030 14 330 0.0 0.0 0.00 0.00 0.00 90 1018.0
20260906124931 14 355 0.0 0.0 0.00 0.00 0.00 90 1018.0
20260906124743 14 351 0.0 0.0 0.00 0.00 0.00 90 1017.9
20260906124636 14 12 0.0 0.0 0.00 0.00 0.00 89 1017.9
20260906124558 14 30 0.0 0.0 0.00 0.00 0.00 89 1017.9
20260906124512 14 360 0.0 0.0 0.00 0.00 0.00 89 1017.9
20260906124433 14 28 0.0 0.0 0.00 0.00 0.00 89 1017.9
20260906124256 14 16 0.0 0.0 0.00 0.00 0.00 90 1017.9
20260906124149 13 13 0.0 0.0 0.00 0.00 0.00 90 1017.9
20260906124019 13 320 0.0 0.0 0.00 0.00 0.00 90 1018.0
20260906123859 13 350 0.0 0.0 0.00 0.00 0.00 90 1018.0
20260906123801 13 355 0.0 0.0 0.00 0.00 0.00 89 1018.0
20260906123642 13 22 0.0 0.0 0.00 0.00 0.00 89 1018.0
20260906123525 13 355 0.0 0.0 0.00 0.00 0.00 89 1018.0
20260906123448 13 346 0.0 0.0 0.00 0.00 0.00 89 1018.0
20260906123228 13 355 0.0 0.0 0.00 0.00 0.00 89 1018.0
20260906123135 13 15 0.0 0.0 0.00 0.00 0.00 89 1018.0
20260906123038 13 80 0.0 0.0 0.00 0.00 0.00 89 1018.0
20260906123000 13 18 0.0 0.0 0.00 0.00 0.00 89 1018.0
20260906122923 13 348 0.0 0.0 0.00 0.00 0.00 89 1018.0
20260906122805 13 355 0.0 0.0 0.00 0.00 0.00 90 1018.1
20260906122725 13 338 0.0 0.0 0.00 0.00 0.00 90 1018.1
20260906122557 13 5 0.0 0.0 0.00 0.00 0.00 90 1018.0
20260906122450 13 9 0.0 0.0 0.00 0.00 0.00 90 1018.0
20260906122301 14 346 0.0 0.0 0.00 0.00 0.00 89 1018.0
20260906122222 13 328 0.0 0.0 0.00 0.00 0.00 89 1018.0
20260906122025 13 349 0.0 0.0 0.00 0.00 0.00 89 1017.9
20260906121933 14 355 0.0 0.0 0.00 0.00 0.00 89 1017.9
20260906121833 14 327 0.0 0.0 0.00 0.00 0.00 90 1017.9
20260906121754 13 333 0.0 0.0 0.00 0.00 0.00 90 1017.9
20260906121715 14 355 0.0 0.0 0.00 0.00 0.00 90 1017.9
20260906121536 13 355 0.0 0.0 0.00 0.00 0.00 90 1017.9
20260906121458 13 30 0.0 0.0 0.00 0.00 0.00 90 1017.8
20260906121340 13 331 0.0 0.0 0.00 0.00 0.00 90 1017.7
20260906121303 13 334 0.0 0.0 0.00 0.00 0.00 90 1017.7
20260906121235 13 355 0.0 0.0 0.00 0.00 0.00 90 1017.7
20260906121100 13 355 0.0 0.0 0.00 0.00 0.00 90 1017.7
20260906121031 13 343 0.0 0.0 0.00 0.00 0.00 90 1017.7
20260906120901 13 350 0.0 0.0 0.00 0.00 0.00 90 1017.7
20260906120728 13 355 0.0 0.0 0.00 0.00 0.00 90 1017.7
20260906120649 13 338 0.0 0.0 0.00 0.00 0.00 90 1017.7
20260906120513 13 355 0.0 0.0 0.00 0.00 0.00 91 1017.7
20260906120435 13 5 0.0 0.0 0.00 0.00 0.00 91 1017.7
20260906120253 13 337 0.0 0.0 0.00 0.00 0.00 91 1017.7
20260906120154 13 322 0.0 0.0 0.00 0.00 0.00 91 1017.7
20260906120038 13 346 0.0 0.0 0.00 0.00 0.00 91 1017.7
20260906120012 13 329 0.0 0.0 0.00 0.00 0.00 91 1017.7
20260906115853 13 324 0.0 0.0 0.00 0.00 0.00 90 1017.7
20260906115815 13 342 0.0 0.0 0.00 0.00 0.00 91 1017.6
20260906115644 13 325 0.0 0.0 0.00 0.00 0.00 91 1017.6
20260906115524 13 360 0.0 0.0 0.00 0.00 0.00 90 1017.6
20260906115427 13 350 0.0 0.0 0.00 0.00 0.00 90 1017.6
20260906115350 13 325 0.0 0.0 0.00 0.00 0.00 91 1017.6
20260906115310 13 328 0.0 0.0 0.00 0.00 0.00 91 1017.6
20260906115213 13 323 0.0 0.0 0.00 0.00 0.00 91 1017.6
20260906115133 13 345 0.0 0.0 0.00 0.00 0.00 91 1017.6
20260906115005 13 344 0.0 0.0 0.00 0.00 0.00 91 1017.6
20260906114858 13 338 0.0 0.0 0.00 0.00 0.00 91 1017.6
20260906114727 13 355 0.0 0.0 0.00 0.00 0.00 91 1017.6
20260906114629 13 5 0.0 0.0 0.00 0.00 0.00 91 1017.6
20260906114437 13 326 0.0 0.0 0.00 0.00 0.00 91 1017.5
20260906114338 13 327 0.0 0.0 0.00 0.00 0.00 91 1017.5
20260906114223 13 350 0.0 0.0 0.00 0.00 0.00 91 1017.5
20260906114145 13 360 0.0 0.0 0.00 0.00 0.00 91 1017.5
20260906113927 13 327 0.0 0.0 0.00 0.00 0.00 91 1017.5
20260906113851 13 317 0.0 0.0 0.00 0.00 0.00 91 1017.6
20260906113754 13 355 0.0 0.0 0.00 0.00 0.00 91 1017.5
20260906113717 13 345 0.0 0.0 0.00 0.00 0.00 91 1017.5
20260906113546 13 13 0.0 0.0 0.00 0.00 0.00 92 1017.4
20260906113424 13 326 0.0 0.0 0.00 0.00 0.00 92 1017.4
20260906113327 13 14 0.0 0.0 0.00 0.00 0.00 92 1017.4
20260906113248 13 21 0.0 0.0 0.00 0.00 0.00 92 1017.4
20260906113117 13 342 0.0 0.0 0.00 0.00 0.00 92 1017.4
20260906113020 13 342 0.0 0.0 0.00 0.00 0.00 92 1017.4
20260906112933 13 335 0.0 0.0 0.00 0.00 0.00 92 1017.3
20260906112744 13 332 0.0 0.0 0.00 0.00 0.00 92 1017.3
20260906112640 13 340 0.0 0.0 0.00 0.00 0.00 92 1017.3
20260906112523 13 342 0.0 0.0 0.00 0.00 0.00 92 1017.3
20260906112448 13 343 0.0 0.0 0.00 0.00 0.00 92 1017.3
20260906112411 13 344 0.0 0.0 0.00 0.00 0.00 92 1017.3
20260906112315 13 346 0.0 0.0 0.00 0.00 0.00 92 1017.3
20260906112235 13 335 0.0 0.0 0.00 0.00 0.00 92 1017.3
20260906112106 13 5 0.0 0.0 0.00 0.00 0.00 92 1017.2
20260906112031 13 321 0.0 0.0 0.00 0.00 0.00 92 1017.2
20260906111902 13 333 0.0 0.0 0.00 0.00 0.00 92 1017.3
20260906111823 13 340 0.0 0.0 0.00 0.00 0.00 92 1017.3
20260906111627 13 348 0.0 0.0 0.00 0.00 0.00 92 1017.3
20260906111550 13 346 0.0 0.0 0.00 0.00 0.00 92 1017.2
20260906111434 13 331 0.0 0.0 0.00 0.00 0.00 92 1017.2
20260906111342 13 347 0.0 0.0 0.00 0.00 0.00 92 1017.2
20260906111235 13 329 0.0 0.0 0.00 0.00 0.00 92 1017.2
20260906111158 13 310 0.0 0.0 0.00 0.00 0.00 92 1017.2
20260906111114 13 335 0.0 0.0 0.00 0.00 0.00 92 1017.2
20260906110924 13 5 0.0 0.0 0.00 0.00 0.00 92 1017.2
20260906110838 13 319 0.0 0.0 0.00 0.00 0.00 92 1017.2
20260906110708 13 336 0.0 0.0 0.00 0.00 0.00 92 1017.2
20260906110629 13 329 0.0 0.0 0.00 0.00 0.00 92 1017.2
20260906110434 13 319 0.0 0.0 0.00 0.00 0.00 92 1017.1
20260906110359 13 310 0.0 0.0 0.00 0.00 0.00 92 1017.0
20260906110241 13 313 0.0 0.0 0.00 0.00 0.00 91 1017.0
20260906110125 13 328 0.0 0.0 0.00 0.00 0.00 92 1017.0
20260906110045 13 319 0.0 0.0 0.00 0.00 0.00 92 1017.0
20260906110007 13 314 0.0 0.0 0.00 0.00 0.00 92 1017.0
20260906105908 13 333 0.0 0.0 0.00 0.00 0.00 92 1017.0
20260906105823 13 319 0.0 0.0 0.00 0.00 0.00 92 1017.0
20260906105634 13 345 0.0 0.0 0.00 0.00 0.00 91 1016.9
20260906105530 13 321 0.0 0.0 0.00 0.00 0.00 91 1016.9
20260906105455 13 323 0.0 0.0 0.00 0.00 0.00 92 1016.9
20260906105338 13 329 0.0 0.0 0.00 0.00 0.00 92 1016.8
20260906105301 13 331 0.0 0.0 0.00 0.00 0.00 92 1016.8
20260906105124 13 315 0.0 0.0 0.00 0.00 0.00 92 1016.8
20260906105044 13 302 0.0 0.0 0.00 0.00 0.00 92 1016.8
20260906104927 13 331 0.0 0.0 0.00 0.00 0.00 92 1016.7
20260906104849 13 315 0.0 0.0 0.00 0.00 0.00 92 1016.8
20260906104718 13 329 0.0 0.0 0.00 0.00 0.00 92 1016.8
20260906104633 13 338 0.0 0.0 0.00 0.00 0.00 92 1016.8
20260906104502 13 342 0.0 0.0 0.00 0.00 0.00 92 1016.8
20260906104403 13 342 0.0 0.0 0.00 0.00 0.00 92 1016.8
20260906104340 13 342 0.0 0.0 0.00 0.00 0.00 92 1016.8
20260906104145 13 338 0.0 0.0 0.00 0.00 0.00 92 1016.7
20260906104106 13 331 0.0 0.0 0.00 0.00 0.00 92 1016.7
20260906104010 13 339 0.0 0.0 0.00 0.00 0.00 92 1016.7
20260906103932 13 339 0.0 0.0 0.00 0.00 0.00 92 1016.7
20260906103802 13 342 0.0 0.0 0.00 0.00 0.00 91 1016.7
20260906103716 13 325 0.0 0.0 0.00 0.00 0.00 91 1016.7
20260906103528 13 331 0.0 0.0 0.00 0.00 0.00 92 1016.7
20260906103422 13 331 0.0 0.0 0.00 0.00 0.00 91 1016.7
20260906103345 13 321 0.0 0.0 0.00 0.00 0.00 92 1016.7
20260906103242 13 325 0.0 0.0 0.00 0.00 0.00 92 1016.7
20260906103126 13 317 0.0 0.0 0.00 0.00 0.00 92 1016.7
20260906103027 13 325 0.0 0.0 0.00 0.00 0.00 92 1016.7
20260906102951 13 334 0.0 0.0 0.00 0.00 0.00 92 1016.7
20260906102852 13 333 0.0 0.0 0.00 0.00 0.00 92 1016.7
20260906102814 13 342 0.0 0.0 0.00 0.00 0.00 92 1016.6
20260906102715 13 342 0.0 0.0 0.00 0.00 0.00 92 1016.7
20260906102622 13 349 0.0 0.0 0.00 0.00 0.00 91 1016.7
20260906102543 13 323 0.0 0.0 0.00 0.00 0.00 92 1016.6
20260906102414 13 17 0.0 0.0 0.00 0.00 0.00 91 1016.7
20260906102331 13 326 0.0 0.0 0.00 0.00 0.00 92 1016.7
20260906102202 13 360 0.0 0.0 0.00 0.00 0.00 92 1016.7
20260906102124 13 336 0.0 0.0 0.00 0.00 0.00 92 1016.7
20260906101955 13 322 0.0 0.0 0.00 0.00 0.00 91 1016.6
20260906101848 13 342 0.0 0.0 0.00 0.00 0.00 91 1016.7
20260906101708 13 330 0.0 0.0 0.00 0.00 0.00 91 1016.6
20260906101608 13 316 0.0 0.0 0.00 0.00 0.00 91 1016.6
20260906101512 13 350 0.0 0.0 0.00 0.00 0.00 91 1016.6
20260906101434 13 350 0.0 0.0 0.00 0.00 0.00 91 1016.6
20260906101306 13 325 0.0 0.0 0.00 0.00 0.00 91 1016.6
20260906101221 13 348 0.0 0.0 0.00 0.00 0.00 91 1016.6
20260906101031 13 334 0.0 0.0 0.00 0.00 0.00 91 1016.6
20260906100950 13 355 0.0 0.0 0.00 0.00 0.00 91 1016.6
20260906100819 13 329 0.0 0.0 0.00 0.00 0.00 91 1016.6
20260906100739 13 324 0.0 0.0 0.00 0.00 0.00 91 1016.6
20260906100610 13 348 0.0 0.0 0.00 0.00 0.00 91 1016.6
20260906100424 13 324 0.0 0.0 0.00 0.00 0.00 91 1016.6
20260906100326 13 333 0.0 0.0 0.00 0.00 0.00 91 1016.6
20260906100247 13 330 0.0 0.0 0.00 0.00 0.00 91 1016.6
20260906100006 13 331 0.0 0.0 0.00 0.00 0.00 91 1016.6
20260906095839 13 338 0.0 0.0 0.00 0.00 0.00 91 1016.6
20260906095810 13 329 0.0 0.0 0.00 0.00 0.00 92 1016.6
20260906095719 13 342 0.0 0.0 0.00 0.00 0.00 91 1016.6
20260906095640 13 342 0.0 0.0 0.00 0.00 0.00 92 1016.6
20260906095508 13 355 0.0 0.0 0.00 0.00 0.00 91 1016.4
20260906095421 13 334 0.0 0.0 0.00 0.00 0.00 92 1016.4
20260906095231 13 344 0.0 0.0 0.00 0.00 0.00 92 1016.4
20260906095146 13 331 0.0 0.0 0.00 0.00 0.00 91 1016.4
20260906094956 13 341 0.0 0.0 0.00 0.00 0.00 91 1016.4
20260906094917 13 340 0.0 0.0 0.00 0.00 0.00 91 1016.4
20260906094759 13 341 0.0 0.0 0.00 0.00 0.00 91 1016.4
20260906094722 13 355 0.0 0.0 0.00 0.00 0.00 91 1016.4
20260906094643 13 360 0.0 0.0 0.00 0.00 0.00 91 1016.4
20260906094515 13 347 0.0 0.0 0.00 0.00 0.00 91 1016.4
20260906094433 13 349 0.0 0.0 0.00 0.00 0.00 91 1016.4
20260906094244 13 351 0.0 0.0 0.00 0.00 0.00 91 1016.4
20260906094158 13 355 0.0 0.0 0.00 0.00 0.00 91 1016.4
20260906094007 13 350 0.0 0.0 0.00 0.00 0.00 91 1016.3
20260906093930 13 337 0.0 0.0 0.00 0.00 0.00 91 1016.3
20260906093733 13 330 0.0 0.0 0.00 0.00 0.00 91 1016.2
20260906093654 13 12 0.0 0.0 0.00 0.00 0.00 91 1016.2
20260906093558 13 355 0.0 0.0 0.00 0.00 0.00 91 1016.3
20260906093440 13 12 0.0 0.0 0.00 0.00 0.00 91 1016.2
20260906093341 13 336 0.0 0.0 0.00 0.00 0.00 91 1016.2
20260906093307 13 306 0.0 0.0 0.00 0.00 0.00 91 1016.2
20260906093117 13 323 0.0 0.0 0.00 0.00 0.00 91 1016.2
20260906093038 13 355 0.0 0.0 0.00 0.00 0.00 91 1016.2
20260906092843 13 340 0.0 0.0 0.00 0.00 0.00 91 1016.2
20260906092806 13 323 0.0 0.0 0.00 0.00 0.00 91 1016.2
20260906092707 13 355 0.0 0.0 0.00 0.00 0.00 92 1016.1
20260906092630 13 343 0.0 0.0 0.00 0.00 0.00 92 1016.1
20260906092459 13 344 0.0 0.0 0.00 0.00 0.00 91 1016.1
20260906092415 13 332 0.0 0.0 0.00 0.00 0.00 91 1016.1
20260906092225 13 15 0.0 0.0 0.00 0.00 0.00 91 1016.1
20260906092140 13 331 0.0 0.0 0.00 0.00 0.00 91 1016.1
20260906092015 13 316 0.0 0.0 0.00 0.00 0.00 91 1016.1
20260906091935 13 328 0.0 0.0 0.00 0.00 0.00 91 1016.1
20260906091807 13 323 0.0 0.0 0.00 0.00 0.00 91 1016.0
20260906091722 13 360 0.0 0.0 0.00 0.00 0.00 92 1016.0
20260906091532 13 324 0.0 0.0 0.00 0.00 0.00 92 1016.0
20260906091448 13 318 0.0 0.0 0.00 0.00 0.00 91 1016.0
20260906091327 13 323 0.0 0.0 0.00 0.00 0.00 91 1016.0
20260906091227 13 5 0.0 0.0 0.00 0.00 0.00 91 1016.0
20260906091109 13 342 0.0 0.0 0.00 0.00 0.00 91 1016.0
20260906091030 13 319 0.0 0.0 0.00 0.00 0.00 91 1016.0
20260906090858 13 318 0.0 0.0 0.00 0.00 0.00 91 1016.0
20260906090752 13 324 0.0 0.0 0.00 0.00 0.00 91 1016.0
20260906090624 13 313 0.0 0.0 0.00 0.00 0.00 91 1016.0
20260906090524 13 332 0.0 0.0 0.00 0.00 0.00 91 1016.0
20260906090354 13 335 0.0 0.0 0.00 0.00 0.00 91 1016.0
20260906090247 13 355 0.0 0.0 0.00 0.00 0.00 91 1015.9
20260906090117 13 340 0.0 0.0 0.00 0.00 0.00 91 1015.9
20260906090038 13 350 0.0 0.0 0.00 0.00 0.00 91 1015.9
20260906085842 13 350 0.0 0.0 0.00 0.00 0.00 91 1015.9
20260906085743 13 348 0.0 0.0 0.00 0.00 0.00 91 1015.9
20260906085628 13 9 0.0 0.0 0.00 0.00 0.00 91 1015.9
20260906085522 13 355 0.0 0.0 0.00 0.00 0.00 91 1015.9
20260906085429 13 355 0.0 0.0 0.00 0.00 0.00 91 1015.8
20260906085344 13 330 0.0 0.0 0.00 0.00 0.00 91 1015.8
20260906085213 13 350 0.0 0.0 0.00 0.00 0.00 91 1015.9
20260906085134 13 336 0.0 0.0 0.00 0.00 0.00 91 1015.9
20260906085006 13 336 0.0 0.0 0.00 0.00 0.00 91 1015.8
20260906084839 13 5 0.0 0.0 0.00 0.00 0.00 91 1015.8
20260906084727 13 43 0.0 0.0 0.00 0.00 0.00 91 1015.8
20260906084648 13 355 0.0 0.0 0.00 0.00 0.00 91 1015.8
20260906084432 13 344 0.0 0.0 0.00 0.00 0.00 91 1015.8
20260906084336 13 355 0.0 0.0 0.00 0.00 0.00 91 1015.7
20260906084239 13 11 0.0 0.0 0.00 0.00 0.00 91 1015.8
20260906084158 13 22 0.0 0.0 0.00 0.00 0.00 91 1015.8
20260906084059 13 338 0.0 0.0 0.00 0.00 0.00 91 1015.8
20260906084003 13 338 0.0 0.0 0.00 0.00 0.00 91 1015.8
20260906083924 13 360 0.0 0.0 0.00 0.00 0.00 91 1015.8
20260906083726 13 355 0.0 0.0 0.00 0.00 0.00 91 1015.8
20260906083628 13 337 0.0 0.0 0.00 0.00 0.00 91 1015.8
20260906083533 13 355 0.0 0.0 0.00 0.00 0.00 91 1015.8
20260906083454 13 360 0.0 0.0 0.00 0.00 0.00 91 1015.8
20260906083358 13 355 0.0 0.0 0.00 0.00 0.00 91 1015.8
20260906083301 13 333 0.0 0.0 0.00 0.00 0.00 91 1015.8
20260906083224 13 355 0.0 0.0 0.00 0.00 0.00 91 1015.8
20260906083026 13 360 0.0 0.0 0.00 0.00 0.00 91 1015.8
20260906082927 13 35 0.0 0.0 0.00 0.00 0.00 91 1015.8
20260906082832 13 23 0.0 0.0 0.00 0.00 0.00 91 1015.8
20260906082734 13 351 0.0 0.0 0.00 0.00 0.00 91 1015.8
20260906082658 13 355 0.0 0.0 0.00 0.00 0.00 91 1015.8
20260906082525 13 19 0.0 0.0 0.00 0.00 0.00 91 1015.7
20260906082422 13 5 0.0 0.0 0.00 0.00 0.00 91 1015.8
20260906082354 13 343 0.0 0.0 0.00 0.00 0.00 91 1015.7
20260906082308 13 5 0.0 0.0 0.00 0.00 0.00 91 1015.7
20260906082209 13 5 0.0 0.0 0.00 0.00 0.00 91 1015.7
20260906082111 13 337 0.0 0.0 0.00 0.00 0.00 91 1015.7
20260906082016 13 36 0.0 0.0 0.00 0.00 0.00 91 1015.8
20260906081916 13 348 0.0 0.0 0.00 0.00 0.00 91 1015.7
20260906081746 13 11 0.0 0.0 0.00 0.00 0.00 91 1015.8
20260906081700 13 33 0.0 0.0 0.00 0.00 0.00 91 1015.7
20260906081530 13 328 0.0 0.0 0.00 0.00 0.00 91 1015.6
20260906081430 13 350 0.0 0.0 0.00 0.00 0.00 91 1015.6
20260906081304 13 350 0.0 0.0 0.00 0.00 0.00 91 1015.6
20260906081217 13 360 0.0 0.0 0.00 0.00 0.00 91 1015.6
20260906081056 13 325 0.0 0.0 0.00 0.00 0.00 91 1015.6
20260906081020 13 319 0.0 0.0 0.00 0.00 0.00 91 1015.6
20260906080933 13 5 0.0 0.0 0.00 0.00 0.00 91 1015.7
20260906080802 13 10 0.0 0.0 0.00 0.00 0.00 91 1015.7
20260906080724 13 5 0.0 0.0 0.00 0.00 0.00 91 1015.7
20260906080528 13 333 0.0 0.0 0.00 0.00 0.00 91 1015.6
20260906080451 13 349 0.0 0.0 0.00 0.00 0.00 91 1015.6
20260906080317 13 355 0.0 0.0 0.00 0.00 0.00 91 1015.6
20260906080245 13 350 0.0 0.0 0.00 0.00 0.00 91 1015.7
20260906080116 13 360 0.0 0.0 0.00 0.00 0.00 91 1015.6
20260906080017 13 360 0.0 0.0 0.00 0.00 0.00 91 1015.6
20260906075838 13 340 0.0 0.0 0.00 0.00 0.00 91 1015.6
20260906075740 13 350 0.0 0.0 0.00 0.00 0.00 91 1015.6
20260906075625 14 334 0.0 0.0 0.00 0.00 0.00 91 1015.6
20260906075547 14 341 0.0 0.0 0.00 0.00 0.00 91 1015.6
20260906075510 14 355 0.0 0.0 0.00 0.00 0.00 91 1015.5
20260906075354 14 351 0.0 0.0 0.00 0.00 0.00 91 1015.5
20260906075314 14 348 0.0 0.0 0.00 0.00 0.00 91 1015.5
20260906075145 14 343 0.0 0.0 0.00 0.00 0.00 91 1015.6
20260906075104 14 341 0.0 0.0 0.00 0.00 0.00 91 1015.5
20260906074924 14 360 0.0 0.0 0.00 0.00 0.00 91 1015.6
20260906074839 14 329 0.0 0.0 0.00 0.00 0.00 91 1015.5
20260906074707 14 355 0.0 0.0 0.00 0.00 0.00 91 1015.5
20260906074630 14 360 0.0 0.0 0.00 0.00 0.00 91 1015.5
20260906074452 14 355 0.0 0.0 0.00 0.00 0.00 91 1015.5
20260906074415 14 347 0.0 0.0 0.00 0.00 0.00 91 1015.5
20260906074154 14 340 0.0 0.0 0.00 0.00 0.00 91 1015.5
20260906074117 14 344 0.0 0.0 0.00 0.00 0.00 91 1015.5
20260906073940 14 325 0.0 0.0 0.00 0.00 0.00 91 1015.5
20260906073840 14 5 0.0 0.0 0.00 0.00 0.00 91 1015.5
20260906073747 14 347 0.0 0.0 0.00 0.00 0.00 91 1015.5
20260906073646 14 355 0.0 0.0 0.00 0.00 0.00 91 1015.4
20260906073518 14 325 0.0 0.0 0.00 0.00 0.00 91 1015.4
20260906073432 14 360 0.0 0.0 0.00 0.00 0.00 91 1015.4
20260906073250 14 355 0.0 0.0 0.00 0.00 0.00 92 1015.4
20260906073100 14 333 0.0 0.0 0.00 0.00 0.00 92 1015.4
20260906073014 14 333 0.0 0.0 0.00 0.00 0.00 92 1015.4
20260906072826 14 350 0.0 0.0 0.00 0.00 0.00 92 1015.4
20260906072740 14 350 0.0 0.0 0.00 0.00 0.00 92 1015.4
20260906072611 14 355 0.0 0.0 0.00 0.00 0.00 92 1015.4
20260906072511 14 360 0.0 0.0 0.00 0.00 0.00 92 1015.4
20260906072411 14 360 0.0 0.0 0.00 0.00 0.00 92 1015.4
20260906072320 14 360 0.0 0.0 0.00 0.00 0.00 92 1015.4
20260906072241 14 360 0.0 0.0 0.00 0.00 0.00 92 1015.4
20260906072113 14 360 0.0 0.0 0.00 0.00 0.00 92 1015.4
20260906072027 14 360 0.0 0.0 0.00 0.00 0.00 92 1015.4
20260906071857 14 18 0.0 0.0 0.00 0.00 0.00 92 1015.3
20260906071820 14 10 0.0 0.0 0.00 0.00 0.00 92 1015.3
20260906071623 14 355 0.0 0.0 0.00 0.00 0.00 92 1015.3
20260906071545 14 355 0.0 0.0 0.00 0.00 0.00 92 1015.3
20260906071430 14 336 0.0 0.0 0.00 0.00 0.00 91 1015.3
20260906071353 14 350 0.0 0.0 0.00 0.00 0.00 91 1015.3
20260906071254 14 350 0.0 0.0 0.00 0.00 0.00 91 1015.3
20260906071123 14 360 0.0 0.0 0.00 0.00 0.00 91 1015.2
20260906071026 14 351 0.0 0.0 0.00 0.00 0.00 91 1015.2
20260906070947 14 351 0.0 0.0 0.00 0.00 0.00 91 1015.3
20260906070841 14 11 0.0 0.0 0.00 0.00 0.00 91 1015.3
20260906070724 14 355 0.0 0.0 0.00 0.00 0.00 91 1015.2
20260906070645 14 338 0.0 0.0 0.00 0.00 0.00 91 1015.2
20260906070428 14 347 0.0 0.0 0.00 0.00 0.00 91 1015.3
20260906070333 14 329 0.0 0.0 0.00 0.00 0.00 91 1015.3
20260906070227 14 327 0.0 0.0 0.00 0.00 0.00 91 1015.3
20260906070148 14 340 0.0 0.0 0.00 0.00 0.00 91 1015.3
20260906070043 14 346 0.0 0.0 0.00 0.00 0.00 91 1015.2
20260906070004 14 9 0.0 0.0 0.00 0.00 0.00 90 1015.2
20260906065825 14 344 0.0 0.0 0.00 0.00 0.00 90 1015.2
20260906065747 14 335 0.0 0.0 0.00 0.00 0.00 90 1015.2
20260906065616 14 340 0.0 0.0 0.00 0.00 0.00 90 1015.2
20260906065531 14 340 0.0 0.0 0.00 0.00 0.00 90 1015.2
20260906065401 14 344 0.0 0.0 0.00 0.00 0.00 90 1015.2
20260906065326 14 347 0.0 0.0 0.00 0.00 0.00 90 1015.2
20260906065131 14 5 0.0 0.0 0.00 0.00 0.00 90 1015.2
20260906065032 14 360 0.0 0.0 0.00 0.00 0.00 90 1015.2
20260906064935 14 355 0.0 0.0 0.00 0.00 0.00 90 1015.1
20260906064855 14 355 0.0 0.0 0.00 0.00 0.00 90 1015.1
20260906064756 15 355 0.0 0.0 0.00 0.00 0.00 90 1015.1
20260906064700 15 351 0.0 0.0 0.00 0.00 0.00 90 1015.1
20260906064541 14 5 0.0 0.0 0.00 0.00 0.00 90 1015.1
20260906064444 15 20 0.0 0.0 0.00 0.00 0.00 90 1015.2
20260906064344 15 355 0.0 0.0 0.00 0.00 0.00 90 1015.1
20260906064128 15 355 0.0 0.0 0.00 0.00 0.00 90 1015.2
20260906064020 15 355 0.0 0.0 0.00 0.00 0.00 90 1015.2
20260906063832 15 344 0.0 0.0 0.00 0.00 0.00 90 1015.2
20260906063746 15 355 0.0 0.0 0.00 0.00 0.00 90 1015.2
20260906063555 15 17 0.0 0.0 0.00 0.00 0.00 90 1015.1
20260906063516 15 332 0.0 0.0 0.00 0.00 0.00 91 1015.2
20260906063348 15 26 0.0 0.0 0.00 0.00 0.00 91 1015.2
20260906063240 15 26 0.0 0.0 0.00 0.00 0.00 91 1015.1
20260906063124 15 26 0.0 0.0 0.00 0.00 0.00 91 1015.1
20260906063045 15 26 0.0 0.0 0.00 0.00 0.00 91 1015.1
20260906062832 15 26 0.0 0.0 0.00 0.00 0.00 91 1015.1
20260906062734 15 26 0.0 0.0 0.00 0.00 0.00 91 1015.1
20260906062638 15 26 0.0 0.0 0.00 0.00 0.00 91 1015.1
20260906062601 15 26 0.0 0.0 0.00 0.00 0.00 91 1015.1
20260906062522 15 26 0.0 0.0 0.00 0.00 0.00 91 1015.1
20260906062404 15 26 0.0 0.0 0.00 0.00 0.00 91 1015.0
20260906062325 15 26 0.0 0.0 0.00 0.00 0.00 91 1015.0
20260906062130 15 5 0.0 0.0 0.00 0.00 0.00 91 1015.0
20260906062032 15 5 0.0 0.0 0.00 0.00 0.00 91 1015.0
20260906061939 15 5 0.0 0.0 0.00 0.00 0.00 91 1015.0
20260906061900 15 5 0.0 0.0 0.00 0.00 0.00 91 1015.0
20260906061718 15 355 0.0 0.0 0.00 0.00 0.00 91 1015.0
20260906061529 15 360 0.0 0.0 0.00 0.00 0.00 91 1015.0
20260906061423 15 360 0.0 0.0 0.00 0.00 0.00 91 1015.0
20260906061234 15 360 0.0 0.0 0.00 0.00 0.00 91 1015.0
20260906061149 15 360 0.0 0.0 0.00 0.00 0.00 91 1015.0
20260906060938 15 26 0.0 0.0 0.00 0.00 0.00 91 1015.0
20260906060835 15 23 0.0 0.0 0.00 0.00 0.00 91 1015.0
20260906060724 15 17 0.0 0.0 0.00 0.00 0.00 91 1014.9
20260906060645 15 17 0.0 0.0 0.00 0.00 0.00 91 1014.9
20260906060516 15 348 0.0 0.0 0.00 0.00 0.00 91 1014.9
20260906060430 15 348 0.0 0.0 0.00 0.00 0.00 91 1014.9
20260906060301 15 348 0.0 0.0 0.00 0.00 0.00 91 1015.0
20260906060223 15 348 0.0 0.0 0.00 0.00 0.00 91 1015.0
20260906060025 15 327 0.0 0.0 0.00 0.00 0.00 92 1015.0
20260906055929 15 32 0.0 0.0 0.00 0.00 0.00 92 1015.0
20260906055831 15 32 0.0 0.0 0.00 0.00 0.00 92 1015.0
20260906055731 15 32 0.0 0.0 0.00 0.00 0.00 92 1015.0
20260906055601 15 42 0.0 0.0 0.00 0.00 0.00 92 1015.0
20260906055521 15 42 0.0 0.0 0.00 0.00 0.00 92 1015.0
20260906055350 15 360 0.0 0.0 0.00 0.00 0.00 92 1015.0
20260906055311 15 360 0.0 0.0 0.00 0.00 0.00 92 1015.0
20260906055155 15 336 0.0 0.0 0.00 0.00 0.00 92 1014.9
20260906055117 15 48 0.0 0.0 0.00 0.00 0.00 92 1015.0
20260906054946 15 48 0.0 0.0 0.00 0.00 0.00 92 1015.0
20260906054902 15 48 0.0 0.0 0.00 0.00 0.00 92 1014.9
20260906054709 15 29 0.0 0.0 0.00 0.00 0.00 92 1014.9
20260906054630 15 29 0.0 0.0 0.00 0.00 0.00 92 1014.9
20260906054434 15 29 0.0 0.0 0.00 0.00 0.00 92 1014.9
20260906054356 15 29 0.0 0.0 0.00 0.00 0.00 92 1014.9
20260906054244 15 29 0.0 0.0 0.00 0.00 0.00 93 1014.9
20260906054205 15 29 0.0 0.0 0.00 0.00 0.00 93 1014.9
20260906054105 15 5 0.0 0.0 0.00 0.00 0.00 93 1014.9
20260906054009 15 5 0.0 0.0 0.00 0.00 0.00 93 1014.9
20260906053930 15 5 0.0 0.0 0.00 0.00 0.00 93 1014.9
20260906053738 15 355 0.0 0.0 0.00 0.00 0.00 93 1014.8
20260906053621 15 355 0.0 0.0 0.00 0.00 0.00 93 1014.8
20260906053543 15 355 0.0 0.0 0.00 0.00 0.00 93 1014.9
20260906053413 15 355 0.0 0.0 0.00 0.00 0.00 93 1014.9
20260906053306 15 355 0.0 0.0 0.00 0.00 0.00 93 1014.8
20260906053136 15 350 0.0 0.0 0.00 0.00 0.00 93 1014.8
20260906053034 15 15 0.0 0.0 0.00 0.00 0.00 93 1014.8
20260906052903 15 339 0.0 0.0 0.00 0.00 0.00 93 1014.8
20260906052828 15 339 0.0 0.0 0.00 0.00 0.00 94 1014.8
20260906052640 15 339 0.0 0.0 0.00 0.00 0.00 93 1014.8
20260906052535 15 339 0.0 0.0 0.00 0.00 0.00 94 1014.8
20260906052458 15 339 0.0 0.0 0.00 0.00 0.00 93 1014.8
20260906052323 15 339 0.0 0.0 0.00 0.00 0.00 93 1014.9
20260906052239 15 339 0.0 0.0 0.00 0.00 0.00 93 1014.9
20260906052108 15 338 0.0 0.0 0.00 0.00 0.00 93 1014.9
20260906052029 15 338 0.0 0.0 0.00 0.00 0.00 93 1014.9
20260906051835 15 338 0.0 0.0 0.00 0.00 0.00 93 1014.8
20260906051756 15 338 0.0 0.0 0.00 0.00 0.00 93 1014.8
20260906051700 15 338 0.0 0.0 0.00 0.00 0.00 93 1014.8
20260906051621 15 338 0.0 0.0 0.00 0.00 0.00 93 1014.8
20260906051452 15 338 0.0 0.0 0.00 0.00 0.00 93 1014.8
20260906051418 15 338 0.0 0.0 0.00 0.00 0.00 93 1014.8
20260906051228 15 328 0.0 0.0 0.00 0.00 0.00 93 1014.7
20260906051142 15 327 0.0 0.0 0.00 0.00 0.00 93 1014.8
20260906051013 15 328 0.0 0.0 0.00 0.00 0.00 93 1014.7
20260906050935 15 328 0.0 0.0 0.00 0.00 0.00 93 1014.7
20260906050805 15 328 0.0 0.0 0.00 0.00 0.00 93 1014.8
20260906050718 15 328 0.0 0.0 0.00 0.00 0.00 93 1014.7
20260906050534 15 328 0.0 0.0 0.00 0.00 0.00 93 1014.7
20260906050449 15 328 0.0 0.0 0.00 0.00 0.00 93 1014.8
20260906050348 15 328 0.0 0.0 0.00 0.00 0.00 93 1014.7
20260906050311 15 328 0.0 0.0 0.00 0.00 0.00 92 1014.7
20260906050226 15 328 0.0 0.0 0.00 0.00 0.00 92 1014.7
20260906050035 15 328 0.0 0.0 0.00 0.00 0.00 93 1014.7
20260906045951 15 328 0.0 0.0 0.00 0.00 0.00 93 1014.6
20260906045821 15 328 0.0 0.0 0.00 0.00 0.00 93 1014.6
20260906045721 15 328 0.0 0.0 0.00 0.00 0.00 93 1014.6
20260906045525 15 328 0.0 0.0 0.00 0.00 0.00 92 1014.6
20260906045432 15 328 0.0 0.0 0.00 0.00 0.00 92 1014.6
20260906045335 15 328 0.0 0.0 0.00 0.00 0.00 93 1014.6
20260906045235 15 328 0.0 0.0 0.00 0.00 0.00 93 1014.6
20260906045118 15 328 0.0 0.0 0.00 0.00 0.00 93 1014.6
20260906045031 15 327 0.0 0.0 0.00 0.00 0.00 93 1014.6
20260906044842 15 328 0.0 0.0 0.00 0.00 0.00 93 1014.5
20260906044757 15 328 0.0 0.0 0.00 0.00 0.00 93 1014.5
20260906044638 15 328 0.0 0.0 0.00 0.00 0.00 93 1014.5
20260906044551 15 328 0.0 0.0 0.00 0.00 0.00 93 1014.5
20260906044433 15 328 0.0 0.0 0.00 0.00 0.00 93 1014.5
20260906044336 15 328 0.0 0.0 0.00 0.00 0.00 93 1014.5
20260906044147 15 328 0.0 0.0 0.00 0.00 0.00 93 1014.5
20260906044040 15 327 0.0 0.0 0.00 0.00 0.00 93 1014.5
20260906043925 15 327 0.0 0.0 0.00 0.00 0.00 93 1014.5
20260906043848 15 328 0.0 0.0 0.00 0.00 0.00 93 1014.4
20260906043718 15 328 0.0 0.0 0.00 0.00 0.00 93 1014.5
20260906043632 15 327 0.0 0.0 0.00 0.00 0.00 93 1014.5
20260906043443 15 327 0.0 0.0 0.00 0.00 0.00 93 1014.5
20260906043337 15 328 0.0 0.0 0.00 0.00 0.00 93 1014.4
20260906043225 15 328 0.0 0.0 0.00 0.00 0.00 93 1014.4
20260906043146 15 327 0.0 0.0 0.00 0.00 0.00 93 1014.4
20260906043057 15 327 0.0 0.0 0.00 0.00 0.00 93 1014.4
20260906043011 15 325 0.0 0.0 0.00 0.00 0.00 93 1014.4
20260906042931 15 322 0.0 0.0 0.00 0.00 0.00 93 1014.4
20260906042803 16 322 0.0 0.0 0.00 0.00 0.00 93 1014.4
20260906042717 16 322 0.0 0.0 0.00 0.00 0.00 93 1014.4
20260906042547 16 322 0.0 0.0 0.00 0.00 0.00 93 1014.4
20260906042509 16 322 0.0 0.0 0.00 0.00 0.00 93 1014.4
20260906042311 16 322 0.0 0.0 0.00 0.00 0.00 93 1014.4
20260906042232 16 322 0.0 0.0 0.00 0.00 0.00 93 1014.4
20260906042048 16 322 0.0 0.0 0.00 0.00 0.00 93 1014.4
20260906041942 16 322 0.0 0.0 0.00 0.00 0.00 93 1014.4
20260906041826 16 322 0.0 0.0 0.00 0.00 0.00 93 1014.4
20260906041747 16 322 0.0 0.0 0.00 0.00 0.00 93 1014.4
20260906041709 16 322 0.0 0.0 0.00 0.00 0.00 93 1014.3
20260906041612 16 322 0.0 0.0 0.00 0.00 0.00 93 1014.3
20260906041534 16 322 0.0 0.0 0.00 0.00 0.00 93 1014.3
20260906041405 16 322 0.0 0.0 0.00 0.00 0.00 93 1014.3
20260906041319 16 322 0.0 0.0 0.00 0.00 0.00 93 1014.3
20260906041130 16 322 0.0 0.0 0.00 0.00 0.00 93 1014.4
20260906041049 16 322 0.0 1.6 0.00 0.00 0.00 93 1014.4
20260906040919 16 322 0.0 3.2 0.00 0.00 0.00 93 1014.3
20260906040819 16 322 0.0 3.2 0.00 0.00 0.00 93 1014.3
20260906040649 16 322 0.0 3.2 0.00 0.00 0.00 93 1014.2
20260906040524 16 322 0.0 3.2 0.00 0.00 0.00 93 1014.2
20260906040428 16 322 0.0 3.2 0.00 0.00 0.00 93 1014.2
20260906040349 16 322 0.0 3.2 0.00 0.00 0.00 93 1014.2
20260906040249 16 207 0.0 3.2 0.00 0.00 0.00 93 1014.2
20260906040154 16 207 0.0 3.2 0.00 0.00 0.00 93 1014.1
20260906040115 16 240 0.0 3.2 0.00 0.00 0.00 93 1014.1
20260906035923 16 240 1.6 3.2 0.00 0.00 0.00 93 1014.1
20260906035841 16 286 1.6 3.2 0.00 0.00 0.00 93 1014.1
20260906035710 16 340 0.0 4.8 0.00 0.00 0.00 93 1014.1
20260906035631 16 340 0.0 4.8 0.00 0.00 0.00 93 1014.1
20260906035437 16 340 0.0 4.8 0.00 0.00 0.00 94 1014.2
20260906035341 16 340 0.0 4.8 0.00 0.00 0.00 94 1014.2
20260906035222 16 340 1.6 4.8 0.00 0.00 0.00 93 1014.3
20260906035146 16 340 1.6 4.8 0.00 0.00 0.00 93 1014.3
20260906035017 16 340 1.6 4.8 0.00 0.00 0.00 93 1014.4
20260906034938 16 340 3.2 4.8 0.00 0.00 0.00 93 1014.4
20260906034809 16 340 1.6 4.8 0.00 0.00 0.00 93 1014.4
20260906034728 16 340 1.6 3.2 0.00 0.00 0.00 93 1014.4
20260906034538 16 340 1.6 3.2 0.00 0.00 0.00 93 1014.4
20260906034436 16 340 0.0 3.2 0.00 0.00 0.00 93 1014.4
20260906034331 16 340 0.0 3.2 0.00 0.00 0.00 93 1014.4
20260906034251 16 340 0.0 3.2 0.00 0.00 0.00 93 1014.4
20260906034101 16 340 0.0 3.2 0.00 0.00 0.00 93 1014.3
20260906034016 16 340 0.0 3.2 0.00 0.00 0.00 93 1014.4
20260906033827 16 340 1.6 3.2 0.00 0.00 0.00 93 1014.3
20260906033727 16 340 0.0 1.6 0.00 0.00 0.00 93 1014.3
20260906033649 16 340 0.0 1.6 0.00 0.00 0.00 93 1014.3
20260906033602 16 340 0.0 1.6 0.00 0.00 0.00 93 1014.3
20260906033444 16 340 0.0 1.6 0.00 0.00 0.00 93 1014.3
20260906033327 16 340 0.0 1.6 0.00 0.00 0.00 93 1014.2
20260906033250 16 340 0.0 1.6 0.00 0.00 0.00 93 1014.2
20260906033210 16 340 0.0 1.6 0.00 0.00 0.00 93 1014.2
20260906033052 16 340 0.0 1.6 0.00 0.00 0.00 93 1014.2
20260906033015 16 340 0.0 1.6 0.00 0.00 0.00 93 1014.2
20260906032726 16 340 0.0 1.6 0.00 0.00 0.00 93 1014.2
20260906032631 16 340 0.0 1.6 0.00 0.00 0.00 93 1014.2
20260906032534 16 340 0.0 0.0 0.00 0.00 0.00 93 1014.3
20260906032456 16 340 0.0 0.0 0.00 0.00 0.00 93 1014.3
20260906032419 16 340 0.0 0.0 0.00 0.00 0.00 93 1014.3
20260906032305 16 340 0.0 0.0 0.00 0.00 0.00 93 1014.3
20260906032223 16 340 0.0 0.0 0.00 0.00 0.00 93 1014.3
20260906032052 16 340 0.0 0.0 0.00 0.00 0.00 93 1014.3
20260906032006 16 340 0.0 0.0 0.00 0.00 0.00 93 1014.3
20260906031835 16 340 0.0 0.0 0.00 0.00 0.00 93 1014.3
20260906031734 16 340 0.0 0.0 0.00 0.00 0.00 93 1014.3
20260906031607 16 340 0.0 0.0 0.00 0.00 0.00 93 1014.3
20260906031520 16 340 0.0 0.0 0.00 0.00 0.00 93 1014.3
20260906031355 16 340 0.0 0.0 0.00 0.00 0.00 93 1014.3
20260906031316 16 340 0.0 0.0 0.00 0.00 0.00 93 1014.3
20260906031139 16 340 0.0 0.0 0.00 0.00 0.00 93 1014.3
20260906031040 16 340 0.0 0.0 0.00 0.00 0.00 93 1014.3
20260906030943 16 340 0.0 0.0 0.00 0.00 0.00 93 1014.3
20260906030844 16 340 0.0 0.0 0.00 0.00 0.00 93 1014.3
20260906030654 16 340 0.0 0.0 0.00 0.00 0.00 93 1014.3
20260906030548 16 340 0.0 0.0 0.00 0.00 0.00 93 1014.3
20260906030357 16 340 0.0 0.0 0.00 0.00 0.00 93 1014.3
20260906030319 16 340 0.0 0.0 0.00 0.00 0.00 93 1014.3
20260906030149 16 340 0.0 0.0 0.00 0.00 0.00 93 1014.3
20260906030049 16 340 0.0 0.0 0.00 0.00 0.00 93 1014.3
20260906025924 16 340 0.0 0.0 0.00 0.00 0.00 93 1014.3
20260906025844 16 340 0.0 0.0 0.00 0.00 0.00 93 1014.3
20260906025805 16 340 0.0 0.0 0.00 0.00 0.00 93 1014.3
20260906025706 16 340 0.0 0.0 0.00 0.00 0.00 93 1014.3
20260906025629 16 340 0.0 0.0 0.00 0.00 0.00 93 1014.3
20260906025434 16 340 0.0 0.0 0.00 0.00 0.00 93 1014.4
20260906025334 16 340 0.0 0.0 0.00 0.00 0.00 93 1014.4
20260906025227 16 340 0.0 0.0 0.00 0.00 0.00 93 1014.4
20260906025129 16 340 0.0 0.0 0.00 0.00 0.00 93 1014.4
20260906024937 16 340 0.0 0.0 0.00 0.00 0.00 93 1014.4
20260906024839 16 340 0.0 0.0 0.00 0.00 0.00 93 1014.4
20260906024723 16 340 0.0 0.0 0.00 0.00 0.00 93 1014.4
20260906024646 16 340 0.0 0.0 0.00 0.00 0.00 93 1014.3
20260906024540 16 340 0.0 0.0 0.00 0.00 0.00 93 1014.4
20260906024441 16 340 0.0 0.0 0.00 0.00 0.00 93 1014.4
20260906024312 16 340 0.0 0.0 0.00 0.00 0.00 93 1014.4
20260906024234 16 340 0.0 0.0 0.00 0.00 0.00 93 1014.4
20260906024039 16 340 0.0 0.0 0.00 0.00 0.00 93 1014.3
20260906024003 16 340 0.0 0.0 0.00 0.00 0.00 93 1014.3
20260906023908 16 340 0.0 0.0 0.00 0.00 0.00 93 1014.3
20260906023829 16 340 0.0 0.0 0.00 0.00 0.00 93 1014.3
20260906023633 16 340 0.0 0.0 0.00 0.00 0.00 93 1014.3
20260906023535 16 340 0.0 0.0 0.00 0.00 0.00 93 1014.3
20260906023438 16 340 0.0 0.0 0.00 0.00 0.00 93 1014.3
20260906023400 16 340 0.0 0.0 0.00 0.00 0.00 92 1014.3
20260906023224 16 340 0.0 0.0 0.00 0.00 0.00 92 1014.3
20260906023124 16 340 0.0 0.0 0.00 0.00 0.00 92 1014.4
20260906023051 16 340 0.0 0.0 0.00 0.00 0.00 92 1014.3
20260906022954 16 340 0.0 0.0 0.00 0.00 0.00 92 1014.3
20260906022916 16 340 0.0 0.0 0.00 0.00 0.00 92 1014.3
20260906022745 16 340 0.0 0.0 0.00 0.00 0.00 92 1014.3
20260906022641 16 340 0.0 0.0 0.00 0.00 0.00 92 1014.3
20260906022525 16 340 0.0 0.0 0.00 0.00 0.00 92 1014.3
20260906022446 16 340 0.0 0.0 0.00 0.00 0.00 92 1014.3
20260906022328 16 340 0.0 0.0 0.00 0.00 0.00 92 1014.3
20260906022209 16 340 0.0 0.0 0.00 0.00 0.00 92 1014.3
20260906022131 16 340 0.0 0.0 0.00 0.00 0.00 92 1014.3
20260906022002 16 340 0.0 0.0 0.00 0.00 0.00 92 1014.3
20260906021921 16 340 0.0 0.0 0.00 0.00 0.00 92 1014.3
20260906021728 16 340 0.0 0.0 0.00 0.00 0.00 92 1014.3
20260906021643 16 340 0.0 0.0 0.00 0.00 0.00 92 1014.3
20260906021513 16 340 0.0 0.0 0.00 0.00 0.00 92 1014.3
20260906021433 16 340 0.0 0.0 0.00 0.00 0.00 92 1014.3
20260906021304 16 340 0.0 0.0 0.00 0.00 0.00 92 1014.3
20260906021218 16 340 0.0 0.0 0.00 0.00 0.00 92 1014.3
20260906021040 16 340 0.0 0.0 0.00 0.00 0.00 92 1014.3
20260906020933 16 340 0.0 0.0 0.00 0.00 0.00 92 1014.3
20260906020856 16 340 0.0 0.0 0.00 0.00 0.00 92 1014.3
20260906020805 16 340 0.0 0.0 0.00 0.00 0.00 92 1014.3
20260906020726 16 340 0.0 0.0 0.00 0.00 0.00 92 1014.3
20260906020530 16 340 0.0 0.0 0.00 0.00 0.00 92 1014.3
20260906020431 16 340 0.0 0.0 0.00 0.00 0.00 92 1014.3
20260906020335 16 340 0.0 0.0 0.00 0.00 0.00 92 1014.4
20260906020236 16 340 0.0 0.0 0.00 0.00 0.00 92 1014.4
20260906020106 16 340 0.0 0.0 0.00 0.00 0.00 92 1014.4
20260906015940 16 340 0.0 0.0 0.00 0.00 0.00 92 1014.4
20260906015823 16 340 0.0 1.6 0.00 0.00 0.00 92 1014.4
20260906015750 16 340 0.0 1.6 0.00 0.00 0.00 92 1014.4
20260906015539 16 340 0.0 1.6 0.00 0.00 0.00 92 1014.4
20260906015434 16 340 0.0 1.6 0.00 0.00 0.00 92 1014.4
20260906015357 16 340 0.0 1.6 0.00 0.00 0.00 92 1014.4
20260906015259 16 340 0.0 1.6 0.00 0.00 0.00 92 1014.4
20260906015141 17 340 0.0 1.6 0.00 0.00 0.00 92 1014.4
20260906015043 16 340 0.0 1.6 0.00 0.00 0.00 92 1014.4
20260906015005 16 340 0.0 1.6 0.00 0.00 0.00 92 1014.4
20260906014835 16 338 0.0 1.6 0.00 0.00 0.00 92 1014.3
20260906014728 16 338 0.0 1.6 0.00 0.00 0.00 92 1014.3
20260906014542 17 338 0.0 1.6 0.00 0.00 0.00 92 1014.3
20260906014456 17 338 0.0 1.6 0.00 0.00 0.00 92 1014.3
20260906014251 17 338 0.0 3.2 0.00 0.00 0.00 91 1014.4
20260906014153 17 338 1.6 3.2 0.00 0.00 0.00 91 1014.4
20260906014036 17 338 1.6 3.2 0.00 0.00 0.00 91 1014.4
20260906013959 17 338 0.0 3.2 0.00 0.00 0.00 91 1014.4
20260906013840 17 338 0.0 3.2 0.00 0.00 0.00 91 1014.4
20260906013801 17 338 0.0 3.2 0.00 0.00 0.00 91 1014.4
20260906013625 17 338 1.6 3.2 0.00 0.00 0.00 92 1014.4
20260906013546 17 338 0.0 3.2 0.00 0.00 0.00 92 1014.4
20260906013359 17 338 0.0 1.6 0.00 0.00 0.00 92 1014.4
20260906013321 17 338 0.0 1.6 0.00 0.00 0.00 92 1014.4
20260906013126 17 338 0.0 1.6 0.00 0.00 0.00 92 1014.4
20260906013047 17 333 0.0 3.2 0.00 0.00 0.00 92 1014.5
20260906012952 17 333 0.0 4.8 0.00 0.00 0.00 92 1014.4
20260906012914 17 333 0.0 4.8 0.00 0.00 0.00 92 1014.5
20260906012745 17 333 0.0 4.8 0.00 0.00 0.00 92 1014.5
20260906012642 17 333 0.0 4.8 0.00 0.00 0.00 92 1014.5
20260906012526 16 333 0.0 4.8 0.00 0.00 0.00 92 1014.4
20260906012434 17 329 0.0 4.8 0.00 0.00 0.00 92 1014.4
20260906012354 16 329 0.0 4.8 0.00 0.00 0.00 92 1014.4
20260906012258 17 329 3.2 4.8 0.00 0.00 0.00 92 1014.4
20260906012159 17 329 3.2 4.8 0.00 0.00 0.00 92 1014.4
20260906012028 17 329 4.8 4.8 0.00 0.00 0.00 92 1014.4
20260906011912 17 327 4.8 6.4 0.00 0.00 0.00 92 1014.4
20260906011833 17 327 3.2 6.4 0.00 0.00 0.00 92 1014.4
20260906011637 17 326 3.2 6.4 0.00 0.00 0.00 92 1014.3
20260906011540 17 326 3.2 6.4 0.00 0.00 0.00 92 1014.4
20260906011444 17 326 3.2 6.4 0.00 0.00 0.00 92 1014.4
20260906011404 17 326 3.2 6.4 0.00 0.00 0.00 92 1014.3
20260906011228 17 340 4.8 6.4 0.00 0.00 0.00 91 1014.3
20260906011122 17 340 4.8 6.4 0.00 0.00 0.00 91 1014.3
20260906010952 17 340 3.2 4.8 0.00 0.00 0.00 91 1014.3
20260906010915 17 340 3.2 4.8 0.00 0.00 0.00 91 1014.3
20260906010746 17 340 3.2 4.8 0.00 0.00 0.00 91 1014.3
20260906010702 17 317 3.2 4.8 0.00 0.00 0.00 91 1014.3
20260906010511 17 317 3.2 4.8 0.00 0.00 0.00 91 1014.4
20260906010433 17 315 3.2 4.8 0.00 0.00 0.00 91 1014.4
20260906010235 17 315 3.2 4.8 0.00 0.00 0.00 91 1014.4
20260906010158 17 315 3.2 6.4 0.00 0.00 0.00 91 1014.3
20260906010040 17 315 3.2 6.4 0.00 0.00 0.00 91 1014.4
20260906010005 17 315 3.2 6.4 0.00 0.00 0.00 91 1014.3
20260906005808 17 315 3.2 6.4 0.00 0.00 0.00 91 1014.3
20260906005729 17 315 3.2 6.4 0.00 0.00 0.00 91 1014.3
20260906005559 17 313 3.2 6.4 0.00 0.00 0.00 91 1014.3
20260906005522 17 312 3.2 6.4 0.00 0.00 0.00 91 1014.3
20260906005307 17 321 4.8 6.4 0.00 0.00 0.00 91 1014.3
20260906005229 17 321 3.2 6.4 0.00 0.00 0.00 91 1014.3
20260906005031 17 325 3.2 4.8 0.00 0.00 0.00 91 1014.3
20260906004954 17 337 3.2 4.8 0.00 0.00 0.00 91 1014.2
20260906004858 17 345 3.2 4.8 0.00 0.00 0.00 91 1014.2
20260906004819 17 345 3.2 6.4 0.00 0.00 0.00 91 1014.2
20260906004628 17 345 3.2 6.4 0.00 0.00 0.00 91 1014.2
20260906004531 17 345 3.2 6.4 0.00 0.00 0.00 91 1014.2
20260906004434 17 345 3.2 6.4 0.00 0.00 0.00 91 1014.2
20260906004337 17 340 3.2 6.4 0.00 0.00 0.00 91 1014.2
20260906004259 17 340 3.2 6.4 0.00 0.00 0.00 91 1014.2
20260906004124 17 333 4.8 6.4 0.00 0.00 0.00 91 1014.2
20260906004037 17 343 4.8 6.4 0.00 0.00 0.00 91 1014.2
20260906003944 17 343 4.8 6.4 0.00 0.00 0.00 91 1014.2
20260906003828 17 344 3.2 4.8 0.00 0.00 0.00 91 1014.2
20260906003723 17 342 1.6 4.8 0.00 0.00 0.00 91 1014.2
20260906003626 17 342 1.6 4.8 0.00 0.00 0.00 91 1014.2
20260906003551 17 331 1.6 4.8 0.00 0.00 0.00 91 1014.2
20260906003433 17 346 1.6 4.8 0.00 0.00 0.00 91 1014.2
20260906003337 17 345 0.0 6.4 0.00 0.00 0.00 91 1014.1
20260906003300 17 345 0.0 6.4 0.00 0.00 0.00 91 1014.2
20260906003127 17 345 1.6 6.4 0.00 0.00 0.00 91 1014.2
20260906003048 17 341 1.6 6.4 0.00 0.00 0.00 91 1014.1
20260906002917 17 341 1.6 6.4 0.00 0.00 0.00 91 1014.2
20260906002832 17 341 1.6 6.4 0.00 0.00 0.00 91 1014.2
20260906002704 17 341 3.2 6.4 0.00 0.00 0.00 91 1014.1
20260906002624 17 341 3.2 6.4 0.00 0.00 0.00 91 1014.1
20260906002434 17 333 3.2 6.4 0.00 0.00 0.00 91 1014.2
20260906002328 17 338 4.8 6.4 0.00 0.00 0.00 91 1014.2
20260906002250 17 338 4.8 6.4 0.00 0.00 0.00 91 1014.2
20260906002154 17 337 4.8 6.4 0.00 0.00 0.00 91 1014.1
20260906002035 17 338 4.8 6.4 0.00 0.00 0.00 91 1014.1
20260906001923 17 338 3.2 4.8 0.00 0.00 0.00 91 1014.1
20260906001846 17 347 3.2 4.8 0.00 0.00 0.00 91 1014.1
20260906001537 17 336 3.2 4.8 0.00 0.00 0.00 91 1014.1
20260906001433 17 336 3.2 4.8 0.00 0.00 0.00 91 1014.1
20260906001333 17 336 3.2 4.8 0.00 0.00 0.00 91 1014.1
20260906001247 17 336 3.2 4.8 0.00 0.00 0.00 91 1014.1
20260906001117 17 336 3.2 4.8 0.00 0.00 0.00 91 1014.0
20260906001038 17 336 3.2 4.8 0.00 0.00 0.00 91 1014.0
20260906000902 17 342 3.2 6.4 0.00 0.00 0.00 91 1014.0
20260906000828 17 342 3.2 6.4 0.00 0.00 0.00 91 1014.0
20260906000658 17 318 3.2 6.4 0.00 0.00 0.00 91 1013.9
20260906000620 17 344 3.2 6.4 0.00 0.00 0.00 91 1013.8
20260906000425 17 355 1.6 6.4 0.00 0.00 0.00 90 1013.8
20260906000348 17 355 1.6 6.4 0.00 0.00 0.00 90 1013.8
20260906000230 17 355 3.2 8.0 0.00 0.00 0.00 90 1013.8
20260906000152 17 347 3.2 8.0 0.00 0.00 0.00 90 1013.8
20260906000035 17 355 3.2 8.0 0.00 0.00 0.00 90 1013.8
20260905235829 17 351 1.6 8.0 0.00 0.00 0.00 90 1013.8
20260905235754 17 355 3.2 8.0 0.00 0.00 0.00 90 1013.8
20260905235625 17 336 4.8 8.0 0.00 0.00 0.00 90 1013.8
20260905235518 17 340 4.8 8.0 0.00 0.00 0.00 90 1013.8
20260905235348 17 344 1.6 6.4 0.00 0.00 0.00 90 1013.8
20260905235248 17 344 1.6 6.4 0.00 0.00 0.00 90 1013.8
20260905235210 17 344 1.6 8.0 0.00 0.00 0.00 90 1013.8
20260905235113 17 344 3.2 8.0 0.00 0.00 0.00 90 1013.8
20260905235036 17 344 3.2 8.0 0.00 0.00 0.00 90 1013.8
20260905234905 17 340 3.2 8.0 0.00 0.00 0.00 90 1013.8
20260905234739 17 19 3.2 8.0 0.00 0.00 0.00 90 1013.7
20260905234623 17 349 3.2 8.0 0.00 0.00 0.00 90 1013.7